<- Previous Day | Today | Next Day ->

All Data for 04 July 2022

 

Time A - D Temp A - D Dew Point A - D Humidity A - D Pressure A - D Wind A - D Wind Dir Gust A - D Rain Rate A - D Rain Total
00:00 11.7 10.1 90 1024.9 2.2 WNW 2.2 0.0 0.0
00:01 11.7 10.1 90 1024.6 1.6 W 2.2 0.0 0.0
00:02 11.7 10.1 90 1024.9 1.6 NW 2.2 0.0 0.0
00:03 11.7 10.1 90 1024.8 2.2 W 2.2 0.0 0.0
00:04 11.7 10.1 90 1025.0 3.8 W 3.8 0.0 0.0
00:05 11.7 10.1 90 1024.9 1.6 NW 3.8 0.0 0.0
00:06 11.7 10.1 90 1024.8 1.6 W 3.8 0.0 0.0
00:07 11.7 10.1 90 1024.8 1.6 W 3.8 0.0 0.0
00:08 11.7 10.3 91 1025.0 0.7 W 3.8 0.0 0.0
00:09 11.7 10.3 91 1025.0 0.7 W 3.8 0.0 0.0
00:11 11.7 10.3 91 1025.0 0.7 W 3.8 0.0 0.0
00:12 11.7 10.3 91 1025.0 0.7 NW 3.8 0.0 0.0
00:13 11.6 10.2 91 1024.8 0.7 NW 3.8 0.0 0.0
00:14 11.6 10.2 91 1025.0 1.6 NW 2.2 0.0 0.0
00:15 11.6 10.2 91 1025.1 1.6 NW 1.6 0.0 0.0
00:16 11.6 10.2 91 1025.1 1.6 NW 1.6 0.0 0.0
00:17 11.6 10.2 91 1025.0 2.2 W 2.2 0.0 0.0
00:18 11.6 10.2 91 1024.9 2.2 W 2.2 0.0 0.0
00:19 11.6 10.2 91 1025.0 2.2 W 2.2 0.0 0.0
00:20 11.6 10.2 91 1025.0 1.6 W 2.2 0.0 0.0
00:21 11.6 10.2 91 1025.0 0.7 W 2.2 0.0 0.0
00:22 11.6 10.2 91 1024.9 0.7 W 2.2 0.0 0.0
00:23 11.6 10.2 91 1024.8 0.7 W 2.2 0.0 0.0
00:25 11.5 10.1 91 1025.1 0.0 SW 2.2 0.0 0.0
00:26 11.5 10.1 91 1025.0 0.0 SW 2.2 0.0 0.0
00:27 11.5 10.1 91 1025.0 0.0 S 2.2 0.0 0.0
00:28 11.5 10.1 91 1025.1 0.7 S 2.2 0.0 0.0
00:29 11.5 10.1 91 1024.9 0.7 S 1.6 0.0 0.0
00:30 11.5 10.1 91 1025.0 0.7 SW 1.6 0.0 0.0
00:31 11.4 10.0 91 1025.1 0.7 SW 0.7 0.0 0.0
00:32 11.4 10.0 91 1024.9 0.0 SW 0.7 0.0 0.0
00:33 11.4 10.0 91 1024.8 0.0 SW 0.7 0.0 0.0
00:34 11.3 9.9 91 1024.8 0.0 SW 0.7 0.0 0.0
00:35 11.3 9.9 91 1024.9 0.7 SW 0.7 0.0 0.0
00:36 11.3 9.9 91 1024.9 0.0 SW 0.7 0.0 0.0
00:37 11.3 9.9 91 1025.1 0.0 SW 0.7 0.0 0.0
00:39 11.2 9.8 91 1024.8 0.0 SW 0.7 0.0 0.0
00:40 11.1 9.7 91 1024.6 0.0 SW 0.7 0.0 0.0
00:41 11.1 9.7 91 1024.8 0.0 SW 0.7 0.0 0.0
00:42 11.1 9.7 91 1024.9 0.0 SW 0.7 0.0 0.0
00:43 11.1 9.7 91 1025.0 0.0 SW 0.7 0.0 0.0
00:44 11.1 9.7 91 1025.0 0.0 SW 0.7 0.0 0.0
00:45 11.0 9.6 91 1025.0 0.0 SW 0.7 0.0 0.0
00:46 11.0 9.6 91 1025.1 0.0 SW 0.0 0.0 0.0
00:47 11.0 9.6 91 1024.9 0.0 SW 0.0 0.0 0.0
00:48 11.0 9.6 91 1025.0 0.0 SW 0.0 0.0 0.0
00:49 10.9 9.5 91 1024.9 0.0 SW 0.0 0.0 0.0
00:50 10.9 9.5 91 1025.1 0.0 SW 0.0 0.0 0.0
00:51 10.9 9.5 91 1024.9 0.0 NW 0.0 0.0 0.0
00:53 10.9 9.5 91 1024.9 0.7 NW 0.7 0.0 0.0
00:54 10.8 9.4 91 1024.9 0.7 NW 0.7 0.0 0.0
00:55 10.8 9.4 91 1025.1 0.7 NW 0.7 0.0 0.0
00:56 10.8 9.4 91 1024.9 0.7 NW 0.7 0.0 0.0
00:57 10.8 9.4 91 1024.8 0.7 NW 0.7 0.0 0.0
00:58 10.8 9.4 91 1024.9 0.7 NW 0.7 0.0 0.0
00:59 10.8 9.4 91 1024.9 0.0 NW 0.7 0.0 0.0
01:00 10.8 9.4 91 1024.9 0.7 W 0.7 0.0 0.0
01:01 10.8 9.4 91 1024.8 0.7 W 0.7 0.0 0.0
01:02 10.8 9.4 91 1025.0 0.7 W 0.7 0.0 0.0
01:03 10.8 9.4 91 1024.8 0.7 W 0.7 0.0 0.0
01:04 10.8 9.4 91 1025.0 0.7 W 0.7 0.0 0.0
01:05 10.8 9.4 91 1024.8 0.7 W 0.7 0.0 0.0
01:07 10.8 9.4 91 1025.0 0.0 SW 0.7 0.0 0.0
01:08 10.8 9.4 91 1025.0 0.0 SW 0.7 0.0 0.0
01:09 10.7 9.3 91 1024.8 0.7 NW 0.7 0.0 0.0
01:10 10.7 9.3 91 1024.9 0.7 NW 0.7 0.0 0.0
01:11 10.7 9.3 91 1024.9 0.7 W 0.7 0.0 0.0
01:12 10.7 9.3 91 1025.0 0.0 W 0.7 0.0 0.0
01:13 10.7 9.3 91 1025.0 0.7 NW 0.7 0.0 0.0
01:14 10.7 9.3 91 1025.0 0.7 NW 0.7 0.0 0.0
01:15 10.7 9.3 91 1025.0 0.7 NW 0.7 0.0 0.0
01:16 10.7 9.3 91 1024.7 0.7 NW 0.7 0.0 0.0
01:17 10.7 9.3 91 1024.9 1.6 NW 1.6 0.0 0.0
01:18 10.7 9.3 91 1024.8 1.6 NW 1.6 0.0 0.0
01:19 10.8 9.6 92 1024.9 0.7 W 1.6 0.0 0.0
01:21 10.8 9.6 92 1024.9 0.7 W 1.6 0.0 0.0
01:22 10.8 9.6 92 1024.8 0.7 W 1.6 0.0 0.0
01:23 10.8 9.6 92 1025.0 0.0 W 1.6 0.0 0.0
01:24 10.8 9.6 92 1024.7 0.7 W 1.6 0.0 0.0
01:25 10.8 9.6 92 1024.8 0.0 W 1.6 0.0 0.0
01:26 10.8 9.6 92 1025.0 0.0 W 1.6 0.0 0.0
01:27 10.8 9.6 92 1024.8 0.0 W 1.6 0.0 0.0
01:28 10.8 9.6 92 1024.9 0.7 NW 1.6 0.0 0.0
01:29 10.8 9.6 92 1024.9 0.0 NW 1.6 0.0 0.0
01:30 10.8 9.6 92 1024.9 0.0 NW 1.6 0.0 0.0
01:31 10.8 9.6 92 1024.8 0.0 NW 0.7 0.0 0.0
01:32 10.7 9.5 92 1024.9 0.0 NW 0.7 0.0 0.0
01:33 10.7 9.5 92 1024.8 0.0 NW 0.7 0.0 0.0
01:35 10.7 9.5 92 1025.0 0.0 NW 0.7 0.0 0.0
01:36 10.6 9.4 92 1025.0 0.0 NW 0.7 0.0 0.0
01:37 10.6 9.4 92 1025.0 0.0 NW 0.7 0.0 0.0
01:38 10.6 9.4 92 1024.9 0.0 NW 0.0 0.0 0.0
01:39 10.6 9.4 92 1024.8 0.0 NW 0.0 0.0 0.0
01:40 10.6 9.4 92 1024.8 0.0 NW 0.0 0.0 0.0
01:41 10.6 9.4 92 1024.9 0.0 NW 0.0 0.0 0.0
01:42 10.5 9.3 92 1024.9 0.0 NW 0.0 0.0 0.0
01:43 10.5 9.3 92 1024.9 0.0 NW 0.0 0.0 0.0
01:44 10.5 9.3 92 1025.0 0.0 NW 0.0 0.0 0.0
01:45 10.5 9.3 92 1025.0 0.0 NW 0.0 0.0 0.0
01:46 10.5 9.3 92 1024.9 0.7 SE 0.7 0.0 0.0
01:47 10.4 9.2 92 1025.0 0.0 SE 0.7 0.0 0.0
01:49 10.4 9.2 92 1025.0 0.0 SE 0.7 0.0 0.0
01:50 10.4 9.2 92 1024.9 0.0 SE 0.7 0.0 0.0
01:51 10.4 9.2 92 1024.6 0.0 SE 0.7 0.0 0.0
01:52 10.4 9.2 92 1025.0 0.0 SE 0.7 0.0 0.0
01:53 10.4 9.2 92 1024.8 0.0 SE 0.7 0.0 0.0
01:54 10.4 9.2 92 1024.8 0.0 SE 0.7 0.0 0.0
01:55 10.4 9.2 92 1024.7 0.0 SE 0.7 0.0 0.0
01:56 10.3 9.1 92 1024.6 0.0 SE 0.7 0.0 0.0
01:57 10.3 9.1 92 1024.8 0.0 SE 0.0 0.0 0.0
01:58 10.3 9.1 92 1024.6 0.0 SE 0.0 0.0 0.0
01:59 10.3 9.1 92 1024.9 0.0 SE 0.0 0.0 0.0
02:00 10.2 8.8 91 1024.6 0.0 SE 0.0 0.0 0.0
02:01 10.1 8.7 91 1024.6 0.0 SE 0.0 0.0 0.0
02:03 10.1 8.7 91 1024.8 0.7 SE 0.7 0.0 0.0
02:04 10.1 8.7 91 1024.8 0.0 SE 0.7 0.0 0.0
02:05 10.1 8.7 91 1024.9 0.0 SE 0.7 0.0 0.0
02:06 10.1 8.7 91 1024.8 0.0 SE 0.7 0.0 0.0
02:07 10.1 8.7 91 1024.8 0.0 SE 0.7 0.0 0.0
02:08 10.1 8.7 91 1024.8 0.0 SE 0.7 0.0 0.0
02:09 10.1 8.9 92 1024.8 0.0 SE 0.7 0.0 0.0
02:10 10.1 8.9 92 1024.8 0.0 SE 0.7 0.0 0.0
02:11 10.1 8.9 92 1024.7 0.0 SE 0.7 0.0 0.0
02:12 10.1 8.9 92 1024.7 0.0 SE 0.7 0.0 0.0
02:13 10.1 8.9 92 1024.7 0.7 SE 0.7 0.0 0.0
02:14 10.1 8.9 92 1024.8 0.0 SE 0.7 0.0 0.0
02:15 10.1 8.9 92 1024.8 0.0 SE 0.7 0.0 0.0
02:17 10.2 9.0 92 1024.8 1.6 S 1.6 0.0 0.0
02:18 10.2 9.0 92 1024.9 1.6 S 1.6 0.0 0.0
02:19 10.2 9.0 92 1024.7 0.7 SW 1.6 0.0 0.0
02:20 10.2 9.0 92 1024.7 0.7 SW 1.6 0.0 0.0
02:21 10.2 9.0 92 1024.6 1.6 SW 1.6 0.0 0.0
02:22 10.2 9.0 92 1024.7 0.7 SW 1.6 0.0 0.0
02:23 10.2 9.0 92 1024.7 0.7 S 1.6 0.0 0.0
02:24 10.2 9.0 92 1024.7 0.7 W 1.6 0.0 0.0
02:25 10.2 9.0 92 1024.6 0.7 W 1.6 0.0 0.0
02:26 10.2 9.0 92 1024.8 0.7 S 1.6 0.0 0.0
02:27 10.2 9.0 92 1024.6 1.6 S 1.6 0.0 0.0
02:28 10.2 9.0 92 1024.9 1.6 S 1.6 0.0 0.0
02:29 10.2 9.0 92 1024.9 1.6 S 1.6 0.0 0.0
02:31 10.2 9.1 93 1024.8 1.6 SE 1.6 0.0 0.0
02:32 10.2 9.1 93 1024.7 1.6 SE 1.6 0.0 0.0
02:33 10.3 9.2 93 1024.7 1.6 SE 1.6 0.0 0.0
02:34 10.3 9.2 93 1024.6 1.6 SE 1.6 0.0 0.0
02:35 10.3 9.2 93 1024.5 0.0 SE 1.6 0.0 0.0
02:36 10.3 9.2 93 1024.4 0.0 SE 1.6 0.0 0.0
02:37 10.3 9.2 93 1024.5 0.7 SW 1.6 0.0 0.0
02:38 10.3 9.2 93 1024.6 0.0 SW 1.6 0.0 0.0
02:39 10.3 9.2 93 1024.7 0.0 SW 1.6 0.0 0.0
02:40 10.3 9.2 93 1024.6 0.0 SW 1.6 0.0 0.0
02:41 10.3 9.2 93 1024.5 0.0 SW 1.6 0.0 0.0
02:42 10.3 9.2 93 1024.5 0.0 SW 1.6 0.0 0.0
02:43 10.3 9.2 93 1024.5 0.0 W 1.6 0.0 0.0
02:45 10.3 9.2 93 1024.3 0.0 SW 0.7 0.0 0.0
02:46 10.3 9.2 93 1024.4 0.7 NW 0.7 0.0 0.0
02:47 10.3 9.2 93 1024.5 0.7 NW 0.7 0.0 0.0
02:48 10.3 9.2 93 1024.5 0.0 NW 0.7 0.0 0.0
02:49 10.3 9.2 93 1024.4 0.0 NW 0.7 0.0 0.0
02:50 10.3 9.2 93 1024.3 0.0 NW 0.7 0.0 0.0
02:51 10.3 9.2 93 1024.4 0.0 NW 0.7 0.0 0.0
02:52 10.3 9.2 93 1024.5 0.0 NW 0.7 0.0 0.0
02:53 10.3 9.2 93 1024.3 0.7 NW 0.7 0.0 0.0
02:54 10.3 9.2 93 1024.5 1.6 NW 1.6 0.0 0.0
02:55 10.3 9.2 93 1024.4 1.6 NW 1.6 0.0 0.0
02:56 10.3 9.2 93 1024.2 1.6 NW 1.6 0.0 0.0
02:57 10.4 9.5 94 1024.4 0.7 NW 1.6 0.0 0.0
02:58 10.4 9.5 94 1024.3 0.7 NW 1.6 0.0 0.0
03:00 10.4 9.5 94 1024.2 1.6 W 1.6 0.0 0.0
03:01 10.4 9.5 94 1024.3 1.6 W 1.6 0.0 0.0
03:02 10.4 9.5 94 1024.3 1.6 W 1.6 0.0 0.0
03:03 10.4 9.5 94 1024.5 1.6 W 1.6 0.0 0.0
03:04 10.4 9.5 94 1024.3 1.6 W 1.6 0.0 0.0
03:05 10.4 9.5 94 1024.7 1.6 W 1.6 0.0 0.0
03:06 10.4 9.5 94 1024.3 1.6 W 1.6 0.0 0.0
03:07 10.5 9.6 94 1024.4 1.6 W 1.6 0.0 0.0
03:08 10.5 9.6 94 1024.4 1.6 SW 1.6 0.0 0.0
03:09 10.5 9.6 94 1024.4 1.6 SW 1.6 0.0 0.0
03:10 10.5 9.6 94 1024.4 1.6 SW 1.6 0.0 0.0
03:11 10.5 9.6 94 1024.4 2.2 NW 2.2 0.0 0.0
03:12 10.5 9.6 94 1024.4 2.2 W 2.2 0.0 0.0
03:14 10.6 9.7 94 1024.4 2.2 NW 2.2 0.0 0.0
03:15 10.6 9.7 94 1024.3 2.2 W 3.1 0.0 0.0
03:16 10.7 9.8 94 1024.2 2.2 W 3.1 0.0 0.0
03:17 10.7 9.8 94 1024.0 3.1 W 3.1 0.0 0.0
03:18 10.7 9.8 94 1024.1 3.1 W 3.1 0.0 0.0
03:19 10.8 9.9 94 1024.2 2.2 W 3.1 0.0 0.0
03:20 10.8 10.0 95 1024.1 2.2 W 3.1 0.0 0.0
03:21 10.8 10.0 95 1024.2 2.2 SW 3.1 0.0 0.0
03:22 10.9 10.1 95 1024.3 2.2 NW 3.1 0.0 0.0
03:23 10.9 10.1 95 1024.2 2.2 NW 3.1 0.0 0.0
03:24 10.9 10.1 95 1024.2 2.2 W 3.1 0.0 0.0
03:25 11.0 10.2 95 1024.3 3.1 W 3.1 0.0 0.0
03:26 11.0 10.2 95 1024.3 3.1 W 3.1 0.0 0.0
03:28 11.0 10.2 95 1024.4 1.6 W 3.1 0.0 0.0
03:29 11.1 10.3 95 1024.3 2.2 W 3.1 0.0 0.0
03:30 11.1 10.3 95 1024.4 3.8 NW 3.8 0.0 0.0
03:31 11.1 10.3 95 1024.2 2.2 W 3.8 0.0 0.0
03:32 11.1 10.3 95 1024.1 2.2 W 3.8 0.0 0.0
03:33 11.1 10.3 95 1024.2 2.2 W 3.8 0.0 0.0
03:34 11.2 10.4 95 1024.2 2.2 W 3.8 0.0 0.0
03:35 11.2 10.4 95 1024.1 2.2 W 3.8 0.0 0.0
03:36 11.2 10.4 95 1024.1 2.2 W 3.8 0.0 0.0
03:37 11.2 10.4 95 1024.4 2.2 NW 3.8 0.0 0.0
03:38 11.2 10.4 95 1024.1 3.1 W 3.8 0.0 0.0
03:39 11.3 10.5 95 1024.2 3.8 N 3.8 0.0 0.0
03:40 11.2 10.4 95 1024.3 3.8 W 3.8 0.0 0.0
03:42 11.3 10.5 95 1024.3 3.8 W 3.8 0.0 0.0
03:43 11.3 10.5 95 1024.2 3.8 W 4.5 0.0 0.0
03:44 11.3 10.5 95 1024.4 3.1 W 4.5 0.0 0.0
03:45 11.3 10.5 95 1024.2 3.1 W 4.5 0.0 0.0
03:46 11.3 10.5 95 1024.5 5.4 W 5.4 0.0 0.0
03:47 11.4 10.6 95 1024.2 3.8 NW 5.4 0.0 0.0
03:48 11.4 10.6 95 1024.4 3.1 W 5.4 0.0 0.0
03:49 11.4 10.6 95 1024.2 3.1 W 5.4 0.0 0.0
03:50 11.4 10.6 95 1024.4 3.1 W 5.4 0.0 0.0
03:51 11.4 10.6 95 1024.3 2.2 SW 5.4 0.0 0.0
03:52 11.4 10.6 95 1024.4 3.8 W 5.4 0.0 0.0
03:53 11.4 10.6 95 1024.3 3.8 N 5.4 0.0 0.0
03:54 11.4 10.6 95 1024.3 3.1 W 5.4 0.0 0.0
03:56 11.5 10.6 94 1024.1 3.1 W 5.4 0.0 0.0
03:57 11.5 10.6 94 1024.4 3.8 SW 5.4 0.0 0.0
03:58 11.5 10.6 94 1024.5 3.8 W 5.4 0.0 0.0
03:59 11.5 10.6 94 1024.3 3.8 W 5.4 0.0 0.0
04:00 11.5 10.6 94 1024.1 4.5 W 5.4 0.0 0.0
04:01 11.5 10.6 94 1024.3 4.5 S 5.4 0.0 0.0
04:02 11.5 10.6 94 1024.3 3.8 W 5.4 0.0 0.0
04:03 11.5 10.6 94 1024.3 3.1 NW 5.4 0.0 0.0
04:04 11.5 10.6 94 1024.3 3.8 W 5.4 0.0 0.0
04:05 11.6 10.5 93 1024.2 3.1 N 5.4 0.0 0.0
04:06 11.6 10.5 93 1024.1 3.1 N 4.5 0.0 0.0
04:07 11.6 10.5 93 1024.1 2.2 SW 4.5 0.0 0.0
04:08 11.6 10.5 93 1024.2 3.1 W 4.5 0.0 0.0
04:10 11.6 10.5 93 1024.2 2.2 SW 4.5 0.0 0.0
04:11 11.6 10.5 93 1024.2 3.8 W 3.8 0.0 0.0
04:12 11.7 10.6 93 1024.2 3.1 W 3.8 0.0 0.0
04:13 11.7 10.6 93 1024.1 2.2 W 3.8 0.0 0.0
04:14 11.7 10.4 92 1024.1 2.2 NW 3.8 0.0 0.0
04:15 11.7 10.4 92 1024.1 3.1 W 3.8 0.0 0.0
04:16 11.7 10.4 92 1024.0 3.1 NW 3.8 0.0 0.0
04:17 11.7 10.4 92 1024.3 2.2 W 3.8 0.0 0.0
04:18 11.7 10.4 92 1024.2 2.2 W 3.8 0.0 0.0
04:19 11.7 10.4 92 1024.2 2.2 W 3.8 0.0 0.0
04:20 11.8 10.5 92 1024.2 2.2 W 3.8 0.0 0.0
04:21 11.8 10.5 92 1024.2 2.2 NW 3.8 0.0 0.0
04:22 11.8 10.5 92 1024.2 2.2 W 3.1 0.0 0.0
04:24 11.8 10.5 92 1024.3 3.8 W 3.8 0.0 0.0
04:25 11.8 10.5 92 1024.0 3.8 W 3.8 0.0 0.0
04:26 11.8 10.5 92 1024.2 3.1 W 3.8 0.0 0.0
04:27 11.8 10.4 91 1024.2 3.8 W 3.8 0.0 0.0
04:28 11.8 10.4 91 1024.3 3.8 W 3.8 0.0 0.0
04:29 11.8 10.4 91 1024.2 3.8 W 3.8 0.0 0.0
04:30 11.9 10.5 91 1024.1 3.8 WSW 3.8 0.0 0.0
04:31 11.9 10.5 91 1024.1 3.8 SW 3.8 0.0 0.0
04:32 11.9 10.5 91 1024.2 3.8 WNW 3.8 0.0 0.0
04:33 11.9 10.5 91 1024.3 3.1 W 3.8 0.0 0.0
04:34 11.9 10.5 91 1024.2 3.1 W 3.8 0.0 0.0
04:35 11.9 10.5 91 1024.3 3.1 N 3.8 0.0 0.0
04:36 12.0 10.6 91 1024.2 3.1 W 3.8 0.0 0.0
04:38 12.0 10.6 91 1024.1 6.9 NW 6.9 0.0 0.0
04:39 12.0 10.6 91 1024.2 9.2 SW 9.2 0.0 0.0
04:40 12.0 10.6 91 1024.3 3.8 W 9.2 0.0 0.0
04:41 12.0 10.6 91 1024.2 4.5 W 9.2 0.0 0.0
04:42 12.0 10.6 91 1024.4 5.4 NW 9.2 0.0 0.0
04:43 12.0 10.6 91 1024.3 3.8 NW 9.2 0.0 0.0
04:44 12.0 10.6 91 1024.2 6.0 NW 9.2 0.0 0.0
04:45 12.1 10.7 91 1024.2 6.9 W 9.2 0.0 0.0
04:46 12.1 10.7 91 1024.1 6.0 W 9.2 0.0 0.0
04:47 12.1 10.5 90 1024.1 6.0 W 9.2 0.0 0.0
04:48 12.1 10.5 90 1024.2 6.0 NW 9.2 0.0 0.0
04:49 12.1 10.5 90 1024.3 3.1 W 9.2 0.0 0.0
04:50 12.1 10.5 90 1024.0 6.0 W 8.3 0.0 0.0
04:52 12.2 10.6 90 1024.1 4.5 W 8.3 0.0 0.0
04:53 12.2 10.6 90 1024.2 3.8 W 8.3 0.0 0.0
04:54 12.2 10.6 90 1024.0 2.2 NW 8.3 0.0 0.0
04:55 12.2 10.4 89 1024.3 4.5 NW 6.0 0.0 0.0
04:56 12.2 10.4 89 1024.2 1.6 SW 6.0 0.0 0.0
04:57 12.2 10.4 89 1024.3 2.2 NW 6.0 0.0 0.0
04:58 12.2 10.4 89 1024.1 3.1 NW 6.0 0.0 0.0
04:59 12.2 10.4 89 1024.1 3.1 W 6.0 0.0 0.0
05:00 12.2 10.4 89 1024.4 3.1 NW 6.0 0.0 0.0
05:01 12.2 10.4 89 1024.3 3.1 NW 5.4 0.0 0.0
05:02 12.2 10.4 89 1024.2 3.1 NW 4.5 0.0 0.0
05:03 12.2 10.4 89 1024.4 3.1 NW 4.5 0.0 0.0
05:04 12.2 10.4 89 1024.2 3.1 NW 4.5 0.0 0.0
05:06 12.2 10.4 89 1024.3 3.1 NW 3.1 0.0 0.0
05:07 12.2 10.4 89 1024.3 3.1 NW 3.1 0.0 0.0
05:08 12.3 10.5 89 1024.3 3.1 W 3.1 0.0 0.0
05:09 12.3 10.5 89 1024.4 2.2 W 3.1 0.0 0.0
05:10 12.3 10.5 89 1024.1 2.2 W 3.1 0.0 0.0
05:11 12.3 10.5 89 1024.4 3.1 NW 3.1 0.0 0.0
05:12 12.3 10.5 89 1024.4 3.1 NW 3.1 0.0 0.0
05:13 12.3 10.5 89 1024.3 2.2 W 3.1 0.0 0.0
05:14 12.3 10.5 89 1024.4 1.6 WNW 3.1 0.0 0.0
05:15 12.3 10.5 89 1024.5 2.2 NW 3.1 0.0 0.0
05:16 12.3 10.5 89 1024.2 2.2 W 3.1 0.0 0.0
05:17 12.3 10.5 89 1024.1 1.6 W 3.1 0.0 0.0
05:18 12.3 10.5 89 1024.1 1.6 W 3.1 0.0 0.0
05:19 12.3 10.5 89 1024.1 1.6 W 3.1 0.0 0.0
05:21 12.3 10.5 89 1024.2 2.2 W 3.1 0.0 0.0
05:22 12.3 10.5 89 1024.3 2.2 W 3.1 0.0 0.0
05:23 12.3 10.5 89 1024.1 1.6 W 3.1 0.0 0.0
05:24 12.3 10.5 89 1024.2 1.6 W 3.1 0.0 0.0
05:25 12.3 10.5 89 1024.4 2.2 W 3.1 0.0 0.0
05:26 12.3 10.5 89 1024.2 2.2 W 3.1 0.0 0.0
05:27 12.3 10.5 89 1024.2 2.2 W 3.1 0.0 0.0
05:28 12.3 10.5 89 1024.2 3.1 W 3.1 0.0 0.0
05:29 12.3 10.5 89 1024.3 1.6 W 3.1 0.0 0.0
05:30 12.3 10.5 89 1024.0 4.5 NW 4.5 0.0 0.0
05:31 12.3 10.5 89 1024.0 5.4 W 5.4 0.0 0.0
05:32 12.3 10.5 89 1024.0 3.8 NW 5.4 0.0 0.0
05:33 12.3 10.5 89 1024.4 2.2 W 5.4 0.0 0.0
05:35 12.3 10.5 89 1024.0 2.2 W 5.4 0.0 0.0
05:36 12.3 10.5 89 1024.3 2.2 W 5.4 0.0 0.0
05:37 12.3 10.5 89 1024.1 2.2 W 5.4 0.0 0.0
05:38 12.4 10.6 89 1024.4 3.1 W 5.4 0.0 0.0
05:39 12.4 10.6 89 1024.1 1.6 W 5.4 0.0 0.0
05:40 12.4 10.6 89 1024.1 1.6 NW 5.4 0.0 0.0
05:41 12.4 10.5 88 1024.2 2.2 NW 5.4 0.0 0.0
05:42 12.4 10.5 88 1024.2 3.1 SW 3.8 0.0 0.0
05:43 12.4 10.5 88 1024.5 3.1 W 3.1 0.0 0.0
05:44 12.4 10.5 88 1024.3 2.2 NW 3.1 0.0 0.0
05:45 12.4 10.6 89 1024.3 2.2 SW 3.1 0.0 0.0
05:46 12.4 10.6 89 1024.2 1.6 W 3.1 0.0 0.0
05:47 12.4 10.6 89 1024.4 2.2 SW 3.1 0.0 0.0
05:48 12.4 10.6 89 1024.3 3.1 W 3.1 0.0 0.0
05:50 12.4 10.6 89 1024.5 2.2 W 3.1 0.0 0.0
05:51 12.4 10.6 89 1024.3 2.2 SW 3.1 0.0 0.0
05:52 12.4 10.6 89 1024.3 3.8 NW 3.8 0.0 0.0
05:53 12.4 10.6 89 1024.5 3.1 SW 3.8 0.0 0.0
05:54 12.4 10.6 89 1024.3 3.1 W 3.8 0.0 0.0
05:55 12.4 10.6 89 1024.5 3.1 W 3.8 0.0 0.0
05:56 12.4 10.6 89 1024.5 2.2 SW 3.8 0.0 0.0
05:57 12.4 10.6 89 1024.5 3.8 SW 3.8 0.0 0.0
05:58 12.4 10.6 89 1024.4 3.8 SW 3.8 0.0 0.0
05:59 12.4 10.6 89 1024.4 2.2 SW 3.8 0.0 0.0
06:00 12.4 10.6 89 1024.4 2.2 W 3.8 0.0 0.0
06:01 12.4 10.6 89 1024.4 3.8 SW 3.8 0.0 0.0
06:02 12.4 10.6 89 1024.2 3.8 W 3.8 0.0 0.0
06:04 12.4 10.6 89 1024.4 3.8 NW 3.8 0.0 0.0
06:05 12.4 10.6 89 1024.3 3.8 W 3.8 0.0 0.0
06:06 12.4 10.6 89 1024.4 2.2 W 3.8 0.0 0.0
06:07 12.5 10.2 86 1024.5 3.8 W 3.8 0.0 0.0
06:08 12.5 10.2 86 1024.3 3.8 W 3.8 0.0 0.0
06:09 12.5 10.2 86 1024.4 4.5 W 4.5 0.0 0.0
06:10 12.5 10.2 86 1024.4 3.8 W 4.5 0.0 0.0
06:11 12.5 10.2 86 1024.1 3.1 W 4.5 0.0 0.0
06:12 12.5 10.2 86 1024.4 4.5 W 4.5 0.0 0.0
06:13 12.5 10.2 86 1024.5 5.4 W 5.4 0.0 0.0
06:14 12.5 10.2 86 1024.5 5.4 W 5.4 0.0 0.0
06:15 12.5 10.2 86 1024.3 3.8 SW 5.4 0.0 0.0
06:16 12.5 10.2 86 1024.3 3.8 W 5.4 0.0 0.0
06:18 12.6 10.3 86 1024.5 5.4 W 5.4 0.0 0.0
06:19 12.6 10.3 86 1024.5 4.5 NW 6.0 0.0 0.0
06:20 12.6 10.3 86 1024.2 3.8 SW 6.0 0.0 0.0
06:21 12.6 10.3 86 1024.4 3.8 NW 6.0 0.0 0.0
06:22 12.6 10.3 86 1024.3 3.1 W 6.0 0.0 0.0
06:23 12.6 10.1 85 1024.5 3.8 NW 6.0 0.0 0.0
06:24 12.6 10.1 85 1024.5 3.8 NW 6.0 0.0 0.0
06:25 12.6 10.1 85 1024.6 3.1 W 6.0 0.0 0.0
06:26 12.6 10.1 85 1024.2 5.4 NW 6.0 0.0 0.0
06:27 12.7 10.2 85 1024.3 5.4 N 6.0 0.0 0.0
06:28 12.7 10.2 85 1024.4 4.5 NW 6.0 0.0 0.0
06:29 12.7 10.2 85 1024.3 7.6 W 7.6 0.0 0.0
06:30 12.7 10.2 85 1024.4 7.6 W 7.6 0.0 0.0
06:31 12.7 10.2 85 1024.5 5.4 NW 7.6 0.0 0.0
06:33 12.7 10.2 85 1024.6 6.0 NW 7.6 0.0 0.0
06:34 12.7 10.2 85 1024.6 6.0 W 7.6 0.0 0.0
06:35 12.7 10.2 85 1024.4 4.5 NW 7.6 0.0 0.0
06:36 12.8 10.3 85 1024.5 10.7 W 10.7 0.0 0.0
06:37 12.8 10.3 85 1024.4 9.8 NW 10.7 0.0 0.0
06:38 12.8 10.3 85 1024.3 5.4 NW 10.7 0.0 0.0
06:39 12.8 10.3 85 1024.2 5.4 W 10.7 0.0 0.0
06:40 12.8 10.2 84 1024.4 5.4 W 10.7 0.0 0.0
06:41 12.8 10.2 84 1024.3 6.0 NW 10.7 0.0 0.0
06:42 12.8 10.2 84 1024.4 4.5 W 10.7 0.0 0.0
06:43 12.8 10.2 84 1024.4 4.5 NW 10.7 0.0 0.0
06:44 12.8 10.2 84 1024.4 4.5 W 10.7 0.0 0.0
06:45 12.8 10.2 84 1024.6 3.8 NW 10.7 0.0 0.0
06:47 12.8 10.2 84 1024.3 5.4 W 6.0 0.0 0.0
06:48 12.8 10.2 84 1024.5 5.4 NW 6.0 0.0 0.0
06:49 12.9 10.1 83 1024.6 6.9 W 6.9 0.0 0.0
06:50 12.9 10.1 83 1024.6 9.2 NW 9.2 0.0 0.0
06:51 12.9 10.1 83 1024.5 6.0 W 9.2 0.0 0.0
06:52 12.9 10.1 83 1024.5 6.0 W 9.2 0.0 0.0
06:53 12.9 10.1 83 1024.4 5.4 W 9.2 0.0 0.0
06:54 12.9 10.1 83 1024.2 6.9 SW 9.2 0.0 0.0
06:55 12.9 10.1 83 1024.4 6.9 W 9.2 0.0 0.0
06:56 12.9 10.1 83 1024.6 5.4 SW 9.2 0.0 0.0
06:57 13.0 10.2 83 1024.5 6.9 N 9.2 0.0 0.0
06:58 13.0 10.2 83 1024.4 5.4 W 9.2 0.0 0.0
06:59 13.0 10.2 83 1024.6 5.4 W 9.2 0.0 0.0
07:01 13.0 10.2 83 1024.3 5.4 W 6.9 0.0 0.0
07:02 13.0 10.2 83 1024.3 5.4 W 6.9 0.0 0.0
07:03 13.0 10.2 83 1024.6 5.4 W 6.9 0.0 0.0
07:04 13.0 10.2 83 1024.6 5.4 W 6.9 0.0 0.0
07:05 13.0 10.2 83 1024.6 5.4 W 6.9 0.0 0.0
07:06 13.0 10.2 83 1024.5 5.4 W 6.9 0.0 0.0
07:07 13.1 10.3 83 1024.3 6.0 NW 6.9 0.0 0.0
07:08 13.1 10.3 83 1024.6 6.0 NW 6.0 0.0 0.0
07:09 13.1 10.3 83 1024.4 2.2 NW 6.0 0.0 0.0
07:10 13.1 10.3 83 1024.6 3.8 W 6.0 0.0 0.0
07:11 13.1 10.3 83 1024.4 5.4 NW 6.0 0.0 0.0
07:12 13.1 10.3 83 1024.4 4.5 W 6.0 0.0 0.0
07:13 13.1 10.3 83 1024.4 3.1 W 6.0 0.0 0.0
07:15 13.1 10.3 83 1024.4 2.2 W 6.0 0.0 0.0
07:16 13.1 10.3 83 1024.6 3.8 W 6.0 0.0 0.0
07:17 13.2 10.4 83 1024.5 3.1 SW 6.0 0.0 0.0
07:18 13.2 10.4 83 1024.3 5.4 W 5.4 0.0 0.0
07:19 13.2 10.4 83 1024.4 6.9 W 6.9 0.0 0.0
07:20 13.2 10.4 83 1024.4 6.9 W 6.9 0.0 0.0
07:21 13.2 10.4 83 1024.5 6.9 W 6.9 0.0 0.0
07:22 13.2 10.4 83 1024.5 4.5 NE 6.9 0.0 0.0
07:23 13.2 10.4 83 1024.5 5.4 NW 6.9 0.0 0.0
07:24 13.2 10.4 83 1024.5 6.9 W 6.9 0.0 0.0
07:25 13.2 10.4 83 1024.5 6.9 W 6.9 0.0 0.0
07:26 13.3 10.5 83 1024.6 7.6 W 7.6 0.0 0.0
07:27 13.3 10.5 83 1024.6 7.6 SW 7.6 0.0 0.0
07:29 13.3 10.3 82 1024.6 4.5 SW 7.6 0.0 0.0
07:30 13.3 10.3 82 1024.6 4.5 W 7.6 0.0 0.0
07:31 13.3 10.3 82 1024.6 3.1 NW 7.6 0.0 0.0
07:32 13.3 10.3 82 1024.6 4.5 NW 7.6 0.0 0.0
07:33 13.3 10.3 82 1024.7 10.7 NW 10.7 0.0 0.0
07:34 13.4 10.4 82 1024.6 6.0 NW 10.7 0.0 0.0
07:35 13.4 10.4 82 1024.4 5.4 NW 10.7 0.0 0.0
07:36 13.4 10.4 82 1024.5 3.8 SW 10.7 0.0 0.0
07:37 13.4 10.4 82 1024.7 4.5 W 10.7 0.0 0.0
07:38 13.4 10.4 82 1024.7 4.5 W 10.7 0.0 0.0
07:39 13.4 10.4 82 1024.4 6.0 SW 10.7 0.0 0.0
07:40 13.4 10.4 82 1024.6 4.5 NW 10.7 0.0 0.0
07:41 13.4 10.4 82 1024.4 6.0 SW 10.7 0.0 0.0
07:43 13.5 10.5 82 1024.5 3.1 W 10.7 0.0 0.0
07:44 13.5 10.5 82 1024.5 3.8 W 6.0 0.0 0.0
07:45 13.5 10.5 82 1024.6 3.1 N 6.0 0.0 0.0
07:46 13.5 10.5 82 1024.4 6.0 W 6.0 0.0 0.0
07:47 13.5 10.5 82 1024.4 4.5 NW 6.0 0.0 0.0
07:48 13.5 10.5 82 1024.4 4.5 NW 6.0 0.0 0.0
07:49 13.5 10.5 82 1024.5 4.5 SW 6.0 0.0 0.0
07:50 13.5 10.5 82 1024.7 3.1 W 6.0 0.0 0.0
07:51 13.6 10.6 82 1024.6 4.5 N 6.0 0.0 0.0
07:52 13.6 10.6 82 1024.5 4.5 SW 6.0 0.0 0.0
07:53 13.6 10.6 82 1024.4 4.5 W 6.0 0.0 0.0
07:54 13.6 10.6 82 1024.6 5.4 W 6.0 0.0 0.0
07:55 13.6 10.6 82 1024.4 6.0 W 6.0 0.0 0.0
07:57 13.6 10.6 82 1024.5 9.2 NW 9.2 0.0 0.0
07:58 13.6 10.6 82 1024.6 9.2 SSW 9.2 0.0 0.0
07:59 13.7 10.9 83 1024.7 5.4 NW 9.2 0.0 0.0
08:00 13.7 10.9 83 1024.6 3.8 W 9.2 0.0 0.0
08:01 13.7 10.9 83 1024.6 6.9 NW 9.2 0.0 0.0
08:02 13.7 10.9 83 1024.7 6.9 N 9.2 0.0 0.0
08:03 13.7 10.9 83 1024.6 9.2 N 9.2 0.0 0.0
08:04 13.7 10.9 83 1024.6 9.2 N 9.2 0.0 0.0
08:05 13.7 10.9 83 1024.6 9.2 NW 9.2 0.0 0.0
08:06 13.7 10.9 83 1024.6 5.4 W 9.2 0.0 0.0
08:07 13.7 10.9 83 1024.8 5.4 W 9.2 0.0 0.0
08:08 13.7 10.9 83 1024.8 4.5 SW 9.2 0.0 0.0
08:09 13.7 10.9 83 1024.6 5.4 SW 9.2 0.0 0.0
08:10 13.7 10.9 83 1024.7 6.9 W 9.2 0.0 0.0
08:11 13.7 10.9 83 1024.7 6.9 NW 9.2 0.0 0.0
08:13 13.7 10.9 83 1024.7 6.0 WNW 9.2 0.0 0.0
08:14 13.7 10.9 83 1024.6 6.0 W 9.2 0.0 0.0
08:15 13.7 10.9 83 1024.8 6.0 SW 6.9 0.0 0.0
08:16 13.7 10.9 83 1024.8 7.6 SW 7.6 0.0 0.0
08:17 13.7 10.9 83 1024.8 7.6 W 7.6 0.0 0.0
08:18 13.7 10.9 83 1024.8 4.5 W 7.6 0.0 0.0
08:19 13.7 10.9 83 1024.8 5.4 NW 7.6 0.0 0.0
08:20 13.7 10.9 83 1024.8 5.4 SW 7.6 0.0 0.0
08:21 13.7 10.9 83 1024.7 3.8 W 7.6 0.0 0.0
08:22 13.8 11.0 83 1024.5 3.8 W 7.6 0.0 0.0
08:23 13.8 11.0 83 1024.7 4.5 W 7.6 0.0 0.0
08:24 13.8 11.0 83 1024.8 6.9 W 7.6 0.0 0.0
08:25 13.8 11.0 83 1024.7 6.0 NW 7.6 0.0 0.0
08:26 13.8 11.0 83 1024.9 3.8 NW 7.6 0.0 0.0
08:28 13.8 11.0 83 1024.7 8.3 NW 8.3 0.0 0.0
08:29 13.9 11.1 83 1024.7 6.9 W 8.3 0.0 0.0
08:30 13.9 11.1 83 1024.6 4.5 NW 8.3 0.0 0.0
08:31 13.9 11.1 83 1024.7 9.2 W 9.2 0.0 0.0
08:32 13.9 10.9 82 1024.8 9.2 NW 9.2 0.0 0.0
08:33 13.9 10.9 82 1024.8 9.2 NW 9.2 0.0 0.0
08:34 13.9 10.9 82 1024.9 8.3 W 9.2 0.0 0.0
08:35 13.9 10.9 82 1024.9 7.6 W 9.2 0.0 0.0
08:36 13.9 10.9 82 1024.8 9.2 W 9.2 0.0 0.0
08:37 13.9 10.9 82 1024.9 9.2 W 9.2 0.0 0.0
08:38 13.9 10.9 82 1024.7 7.6 W 9.2 0.0 0.0
08:39 13.9 10.9 82 1024.8 8.3 W 9.2 0.0 0.0
08:40 13.9 10.9 82 1024.9 8.3 W 9.2 0.0 0.0
08:41 13.9 10.9 82 1024.9 9.2 W 9.2 0.0 0.0
08:43 13.9 10.9 82 1024.9 9.2 SW 9.2 0.0 0.0
08:44 13.9 10.9 82 1024.8 9.8 SW 9.8 0.0 0.0
08:45 13.9 10.9 82 1025.0 9.2 W 9.8 0.0 0.0
08:46 13.9 10.9 82 1025.0 6.0 W 9.8 0.0 0.0
08:47 13.9 10.9 82 1024.7 9.2 NW 9.8 0.0 0.0
08:48 13.9 10.9 82 1024.7 9.2 NW 9.8 0.0 0.0
08:49 13.9 10.9 82 1024.9 5.4 W 9.8 0.0 0.0
08:50 13.9 10.9 82 1025.0 6.9 W 9.8 0.0 0.0
08:51 13.9 10.7 81 1024.9 6.9 W 9.8 0.0 0.0
08:52 13.9 10.7 81 1024.9 8.3 NW 9.8 0.0 0.0
08:53 13.9 10.7 81 1024.9 8.3 NW 9.8 0.0 0.0
08:54 14.0 10.8 81 1025.0 6.0 W 9.8 0.0 0.0
08:55 14.0 10.8 81 1025.0 7.6 W 9.2 0.0 0.0
08:57 14.0 10.8 81 1025.1 4.5 W 9.2 0.0 0.0
08:58 14.0 11.0 82 1025.0 4.5 NW 8.3 0.0 0.0
08:59 14.0 11.0 82 1024.8 4.5 W 8.3 0.0 0.0
09:00 14.0 11.0 82 1025.1 4.5 W 8.3 0.0 0.0
09:01 14.0 11.0 82 1024.9 4.5 W 8.3 0.0 0.0
09:02 14.0 11.0 82 1025.1 4.5 W 8.3 0.0 0.0
09:03 14.0 11.0 82 1024.9 4.5 W 7.6 0.0 0.0
09:04 14.0 11.0 82 1025.0 4.5 W 7.6 0.0 0.0
09:05 14.0 11.0 82 1024.7 4.5 W 7.6 0.0 0.0
09:06 14.1 11.1 82 1025.0 3.8 NW 9.8 0.0 0.0
09:07 14.1 11.1 82 1025.1 4.5 NW 9.8 0.0 0.0
09:08 14.1 11.1 82 1025.0 6.0 SW 9.8 0.0 0.0
09:09 14.2 11.2 82 1024.8 8.3 SW 9.8 0.0 0.0
09:10 14.2 11.2 82 1025.1 8.3 SW 9.8 0.0 0.0
09:11 14.2 11.0 81 1025.0 5.4 NW 9.8 0.0 0.0
09:13 14.2 11.0 81 1024.9 9.8 NW 9.8 0.0 0.0
09:14 14.2 11.0 81 1025.0 8.3 SW 9.8 0.0 0.0
09:15 14.2 11.0 81 1025.0 5.4 NW 9.8 0.0 0.0
09:16 14.2 11.0 81 1024.9 6.0 WNW 9.8 0.0 0.0
09:17 14.2 11.2 82 1024.9 6.0 W 9.8 0.0 0.0
09:18 14.2 11.2 82 1025.0 6.9 N 9.8 0.0 0.0
09:19 14.2 11.2 82 1024.8 6.0 W 9.8 0.0 0.0
09:20 14.2 11.2 82 1025.1 7.6 SW 9.8 0.0 0.0
09:21 14.2 11.2 82 1024.8 6.9 W 9.8 0.0 0.0
09:22 14.2 11.2 82 1025.0 6.9 N 9.8 0.0 0.0
09:23 14.2 11.2 82 1025.1 5.4 W 9.8 0.0 0.0
09:24 14.3 11.3 82 1025.0 5.4 SW 9.8 0.0 0.0
09:25 14.3 11.3 82 1024.9 5.4 W 9.8 0.0 0.0
09:26 14.3 11.3 82 1025.0 9.8 NW 9.8 0.0 0.0
09:28 14.3 11.1 81 1025.4 9.8 NW 9.8 0.0 0.0
09:29 14.3 11.1 81 1025.0 9.8 N 9.8 0.0 0.0
09:30 14.3 11.1 81 1025.1 4.5 W 9.8 0.0 0.0
09:31 14.3 11.1 81 1025.1 4.5 W 9.8 0.0 0.0
09:32 14.3 11.1 81 1025.1 5.4 NW 9.8 0.0 0.0
09:33 14.3 11.1 81 1025.1 5.4 NW 9.8 0.0 0.0
09:34 14.3 11.1 81 1025.1 6.9 W 9.8 0.0 0.0
09:35 14.3 11.1 81 1025.0 5.4 NW 9.8 0.0 0.0
09:36 14.3 11.1 81 1024.9 5.4 NW 9.8 0.0 0.0
09:37 14.3 11.1 81 1025.0 10.7 W 10.7 0.0 0.0
09:38 14.4 11.2 81 1025.1 4.5 NW 10.7 0.0 0.0
09:39 14.4 11.2 81 1025.2 4.5 NW 10.7 0.0 0.0
09:40 14.4 11.2 81 1025.1 6.9 SE 10.7 0.0 0.0
09:41 14.4 11.2 81 1025.0 6.9 W 10.7 0.0 0.0
09:42 14.4 11.2 81 1025.2 7.6 W 10.7 0.0 0.0
09:44 14.4 11.2 81 1025.2 3.8 NW 10.7 0.0 0.0
09:45 14.4 11.2 81 1024.9 7.6 N 10.7 0.0 0.0
09:46 14.4 11.2 81 1025.1 6.9 W 10.7 0.0 0.0
09:47 14.4 11.2 81 1025.1 9.2 W 9.2 0.0 0.0
09:48 14.4 11.2 81 1024.8 9.8 W 9.8 0.0 0.0
09:49 14.4 11.2 81 1024.8 9.8 W 9.8 0.0 0.0
09:50 14.4 11.2 81 1025.0 6.9 SW 9.8 0.0 0.0
09:51 14.4 11.2 81 1025.0 9.8 W 9.8 0.0 0.0
09:52 14.4 11.2 81 1025.1 9.8 WSW 9.8 0.0 0.0
09:53 14.4 11.2 81 1025.2 5.4 S 9.8 0.0 0.0
09:54 14.4 11.2 81 1025.0 5.4 WSW 9.8 0.0 0.0
09:55 14.3 11.1 81 1025.1 6.0 NW 9.8 0.0 0.0
09:56 14.3 11.1 81 1025.1 6.0 W 9.8 0.0 0.0
09:57 14.3 11.1 81 1025.0 5.4 NW 9.8 0.0 0.0
09:59 14.3 11.1 81 1025.0 8.3 NW 9.8 0.0 0.0
10:00 14.3 11.1 81 1025.2 8.3 NW 9.8 0.0 0.0
10:01 14.3 11.1 81 1025.0 8.3 NW 9.8 0.0 0.0
10:02 14.3 11.1 81 1025.1 8.3 NW 8.3 0.0 0.0
10:03 14.3 11.3 82 1025.0 7.6 W 8.3 0.0 0.0
10:04 14.3 11.3 82 1025.0 7.6 W 8.3 0.0 0.0
10:05 14.3 11.3 82 1025.0 9.8 W 9.8 0.0 0.0
10:06 14.3 11.3 82 1025.0 7.6 W 9.8 0.0 0.0
10:07 14.3 11.3 82 1025.2 7.6 W 9.8 0.0 0.0
10:08 14.3 11.3 82 1025.3 8.3 S 9.8 0.0 0.0
10:09 14.4 11.4 82 1025.1 6.9 NW 9.8 0.0 0.0
10:10 14.4 11.4 82 1025.2 5.4 NW 9.8 0.0 0.0
10:11 14.4 11.4 82 1025.1 6.9 SW 9.8 0.0 0.0
10:12 14.4 11.4 82 1025.1 9.8 SW 9.8 0.0 0.0
10:14 14.4 11.4 82 1025.2 6.0 SW 9.8 0.0 0.0
10:15 14.4 11.4 82 1025.1 8.3 NW 9.8 0.0 0.0
10:16 14.4 11.4 82 1025.0 8.3 W 9.8 0.0 0.0
10:17 14.4 11.4 82 1025.1 6.9 NW 9.8 0.0 0.0
10:18 14.4 11.4 82 1025.2 8.3 NE 9.8 0.0 0.0
10:19 14.4 11.4 82 1025.3 4.5 N 9.8 0.0 0.0
10:20 14.4 11.4 82 1025.2 8.3 W 9.8 0.0 0.0
10:21 14.4 11.4 82 1025.2 8.3 W 9.8 0.0 0.0
10:22 14.4 11.4 82 1025.1 6.0 NW 9.8 0.0 0.0
10:23 14.4 11.4 82 1025.1 7.6 W 8.3 0.0 0.0
10:24 14.4 11.4 82 1025.4 7.6 W 8.3 0.0 0.0
10:25 14.5 11.5 82 1025.1 4.5 NW 8.3 0.0 0.0
10:26 14.5 11.5 82 1025.2 8.3 N 8.3 0.0 0.0
10:27 14.5 11.5 82 1024.9 9.2 NW 9.2 0.0 0.0
10:28 14.5 11.5 82 1025.3 7.6 NW 9.2 0.0 0.0
10:29 14.5 11.5 82 1025.1 9.8 W 9.8 0.0 0.0
10:30 14.5 11.5 82 1025.2 9.8 NW 9.8 0.0 0.0
10:32 14.6 11.6 82 1025.1 8.3 NW 9.8 0.0 0.0
10:33 14.6 11.6 82 1025.1 6.9 NW 9.8 0.0 0.0
10:34 14.6 11.6 82 1025.2 9.2 NW 9.8 0.0 0.0
10:35 14.6 11.6 82 1025.0 3.8 N 9.8 0.0 0.0
10:36 14.6 11.6 82 1025.3 6.0 W 9.8 0.0 0.0
10:37 14.6 11.6 82 1024.9 4.5 NW 9.8 0.0 0.0
10:38 14.7 11.7 82 1025.3 3.8 SW 9.8 0.0 0.0
10:39 14.7 11.7 82 1025.2 6.0 N 9.8 0.0 0.0
10:40 14.7 11.7 82 1025.3 5.4 W 9.8 0.0 0.0
10:41 14.7 11.7 82 1025.2 4.5 W 9.2 0.0 0.0
10:42 14.7 11.7 82 1024.9 5.4 SW 9.2 0.0 0.0
10:43 14.8 11.8 82 1025.2 5.4 NW 9.2 0.0 0.0
10:44 14.8 11.8 82 1025.2 3.8 W 9.2 0.0 0.0
10:45 14.8 11.8 82 1025.4 7.6 NW 7.6 0.0 0.0
10:46 14.9 11.9 82 1025.1 6.0 NW 7.6 0.0 0.0
10:47 14.9 11.9 82 1025.1 5.4 W 7.6 0.0 0.0
10:49 14.9 11.9 82 1025.1 8.3 N 8.3 0.0 0.0
10:50 15.0 12.0 82 1025.1 10.7 NW 10.7 0.0 0.0
10:51 15.0 12.0 82 1025.2 7.6 W 10.7 0.0 0.0
10:52 15.0 12.0 82 1025.2 7.6 N 10.7 0.0 0.0
10:53 15.0 12.0 82 1025.3 7.6 N 10.7 0.0 0.0
10:54 15.0 12.0 82 1025.2 4.5 NW 10.7 0.0 0.0
10:55 15.0 12.0 82 1025.1 4.5 NW 10.7 0.0 0.0
10:56 15.1 12.1 82 1025.3 8.3 W 10.7 0.0 0.0
10:57 15.1 12.1 82 1025.3 8.3 NW 10.7 0.0 0.0
10:58 15.1 11.9 81 1025.2 6.9 NW 10.7 0.0 0.0
10:59 15.1 11.9 81 1025.1 6.9 NW 10.7 0.0 0.0
11:00 15.2 12.2 82 1025.3 6.9 W 10.7 0.0 0.0
11:01 15.2 12.2 82 1025.3 6.9 W 10.7 0.0 0.0
11:02 15.2 12.2 82 1025.4 6.9 W 8.3 0.0 0.0
11:03 15.2 12.0 81 1025.3 9.8 NW 9.8 0.0 0.0
11:05 15.1 11.9 81 1025.3 6.0 NW 9.8 0.0 0.0
11:06 15.1 11.9 81 1025.4 4.5 NW 9.8 0.0 0.0
11:07 15.1 11.9 81 1025.2 5.4 NW 9.8 0.0 0.0
11:08 15.1 11.9 81 1025.4 4.5 NW 9.8 0.0 0.0
11:09 15.1 11.9 81 1025.4 4.5 NW 9.8 0.0 0.0
11:10 15.1 11.9 81 1025.4 5.4 NW 9.8 0.0 0.0
11:11 15.2 12.0 81 1025.7 6.0 N 9.8 0.0 0.0
11:12 15.2 12.0 81 1025.4 7.6 W 9.8 0.0 0.0
11:13 15.2 12.0 81 1025.5 6.9 W 9.8 0.0 0.0
11:14 15.2 12.0 81 1025.2 6.9 NE 8.3 0.0 0.0
11:15 15.1 11.9 81 1025.6 5.4 W 8.3 0.0 0.0
11:16 15.1 11.9 81 1025.3 7.6 S 8.3 0.0 0.0
11:17 15.1 11.9 81 1025.3 6.9 W 8.3 0.0 0.0
11:18 15.1 11.9 81 1025.3 6.9 SW 8.3 0.0 0.0
11:19 15.1 11.9 81 1025.3 6.0 NW 8.3 0.0 0.0
11:20 15.0 11.8 81 1025.2 7.6 W 8.3 0.0 0.0
11:22 15.0 11.8 81 1025.2 10.7 NW 10.7 0.0 0.0
11:23 15.0 11.8 81 1025.3 6.9 NE 10.7 0.0 0.0
11:24 15.0 11.8 81 1025.6 9.2 W 10.7 0.0 0.0
11:25 15.0 11.8 81 1025.4 6.9 W 10.7 0.0 0.0
11:26 15.0 11.8 81 1025.3 6.0 W 10.7 0.0 0.0
11:27 15.1 11.9 81 1025.3 9.8 W 10.7 0.0 0.0
11:28 15.1 11.9 81 1025.3 9.8 W 10.7 0.0 0.0
11:29 15.1 11.9 81 1025.4 4.5 W 10.7 0.0 0.0
11:30 15.2 12.0 81 1025.4 7.6 WNW 10.7 0.0 0.0
11:31 15.2 12.0 81 1025.5 7.6 NW 10.7 0.0 0.0
11:32 15.2 12.0 81 1025.4 7.6 NW 10.7 0.0 0.0
11:33 15.3 12.1 81 1025.4 5.4 W 9.8 0.0 0.0
11:34 15.3 12.1 81 1025.4 6.0 N 9.8 0.0 0.0
11:35 15.4 12.2 81 1025.3 6.0 W 9.8 0.0 0.0
11:37 15.6 12.4 81 1025.3 6.0 NW 9.8 0.0 0.0
11:38 15.6 12.2 80 1025.4 6.9 W 7.6 0.0 0.0
11:39 15.7 12.3 80 1025.3 5.4 W 7.6 0.0 0.0
11:40 15.8 12.4 80 1025.3 3.8 E 7.6 0.0 0.0
11:41 15.9 12.5 80 1025.3 5.4 N 7.6 0.0 0.0
11:42 16.0 12.6 80 1025.1 4.5 W 6.9 0.0 0.0
11:43 16.1 12.8 81 1025.4 3.1 NE 6.9 0.0 0.0
11:44 16.3 13.0 81 1025.2 5.4 W 6.9 0.0 0.0
11:45 16.4 13.1 81 1025.3 6.9 N 6.9 0.0 0.0
11:46 16.5 13.0 80 1025.3 4.5 NW 9.2 0.0 0.0
11:47 16.6 13.1 80 1025.2 5.4 N 9.2 0.0 0.0
11:48 16.6 13.0 79 1025.1 5.4 W 9.2 0.0 0.0
11:49 16.7 13.0 79 1025.4 7.6 N 9.2 0.0 0.0
11:50 16.7 13.0 79 1025.2 6.9 W 9.2 0.0 0.0
11:51 16.7 13.0 79 1025.4 6.9 W 9.2 0.0 0.0
11:52 16.8 13.0 78 1025.4 7.6 NW 9.2 0.0 0.0
11:54 16.7 12.5 76 1025.3 6.9 NW 9.2 0.0 0.0
11:55 16.6 12.4 76 1025.4 6.9 WNW 9.2 0.0 0.0
11:56 16.6 12.4 76 1025.4 7.6 W 7.6 0.0 0.0
11:57 16.6 12.4 76 1025.3 8.3 N 8.3 0.0 0.0
11:58 16.6 12.4 76 1025.2 6.0 NW 8.3 0.0 0.0
11:59 16.6 12.4 76 1025.2 5.4 NW 8.3 0.0 0.0
12:00 16.6 12.4 76 1025.2 5.4 NW 8.3 0.0 0.0
12:01 16.6 12.4 76 1025.2 5.4 NW 8.3 0.0 0.0
12:02 16.6 12.4 76 1025.2 5.4 NW 8.3 0.0 0.0
12:03 16.9 12.9 77 1025.2 8.3 NW 8.3 0.0 0.0
12:04 17.0 12.9 77 1025.4 5.4 NW 8.3 0.0 0.0
12:05 17.0 12.7 76 1025.4 7.6 W 8.3 0.0 0.0
12:06 17.1 12.6 75 1025.3 7.6 NW 8.3 0.0 0.0
12:07 17.1 12.6 75 1025.1 3.8 NW 8.3 0.0 0.0
12:08 17.1 12.6 75 1025.4 3.8 W 8.3 0.0 0.0
12:09 17.2 12.9 76 1025.2 3.8 N 8.3 0.0 0.0
12:10 17.3 12.8 75 1025.3 7.6 NE 8.3 0.0 0.0
12:12 17.4 12.9 75 1025.3 6.0 NW 8.3 0.0 0.0
12:13 17.4 12.9 75 1025.3 5.4 NE 7.6 0.0 0.0
12:14 17.4 12.9 75 1025.3 6.0 NW 7.6 0.0 0.0
12:15 17.4 12.9 75 1025.0 6.9 NW 7.6 0.0 0.0
12:16 17.4 12.7 74 1025.2 6.9 W 7.6 0.0 0.0
12:17 17.4 12.7 74 1025.2 5.4 SW 7.6 0.0 0.0
12:18 17.4 12.7 74 1025.4 8.3 NW 8.3 0.0 0.0
12:19 17.4 12.7 74 1025.2 7.6 N 8.3 0.0 0.0
12:20 17.4 12.7 74 1025.1 5.4 SW 8.3 0.0 0.0
12:21 17.4 12.7 74 1025.2 6.9 N 8.3 0.0 0.0
12:22 17.4 12.9 75 1025.3 5.4 N 8.3 0.0 0.0
12:23 17.5 12.4 72 1025.3 4.5 N 8.3 0.0 0.0
12:24 17.5 12.4 72 1024.9 4.5 N 8.3 0.0 0.0
12:25 17.6 12.5 72 1025.1 5.4 N 8.3 0.0 0.0
12:26 17.6 12.5 72 1025.3 6.9 NW 8.3 0.0 0.0
12:28 17.7 12.4 71 1025.4 5.4 W 7.6 0.0 0.0
12:29 17.7 12.6 72 1025.1 6.0 W 7.6 0.0 0.0
12:30 17.9 12.8 72 1025.3 4.5 W 7.6 0.0 0.0
12:31 18.0 12.9 72 1025.3 8.3 NE 8.3 0.0 0.0
12:32 18.0 12.7 71 1025.3 5.4 NW 8.3 0.0 0.0
12:33 18.0 12.7 71 1025.3 5.4 NW 8.3 0.0 0.0
12:34 18.0 12.5 70 1025.3 8.3 NW 8.3 0.0 0.0
12:35 17.9 12.4 70 1025.3 8.3 NE 8.3 0.0 0.0
12:36 17.8 12.0 69 1025.3 6.9 W 8.3 0.0 0.0
12:37 17.8 12.0 69 1025.4 9.8 NW 9.8 0.0 0.0
12:38 17.6 11.9 69 1025.2 6.0 NW 9.8 0.0 0.0
12:39 17.6 12.1 70 1025.1 6.9 W 9.8 0.0 0.0
12:40 17.6 12.1 70 1025.3 6.0 SW 9.8 0.0 0.0
12:41 17.7 12.2 70 1025.3 6.0 N 9.8 0.0 0.0
12:42 17.7 12.4 71 1025.1 6.9 W 9.8 0.0 0.0
12:44 17.6 12.1 70 1025.3 4.5 SW 10.7 0.0 0.0
12:45 17.6 12.1 70 1025.2 4.5 NW 10.7 0.0 0.0
12:46 17.7 12.4 71 1025.4 6.9 W 10.7 0.0 0.0
12:47 17.7 12.4 71 1025.3 8.3 NW 10.7 0.0 0.0
12:48 17.7 12.4 71 1025.3 9.2 NW 10.7 0.0 0.0
12:49 17.7 12.4 71 1025.3 6.9 NW 10.7 0.0 0.0
12:50 17.7 12.4 71 1025.3 6.9 SW 10.7 0.0 0.0
12:51 17.7 12.4 71 1025.3 5.4 NW 10.7 0.0 0.0
12:52 17.7 12.2 70 1025.3 5.4 E 10.7 0.0 0.0
12:53 17.8 12.5 71 1025.2 6.9 W 10.7 0.0 0.0
12:54 17.8 12.5 71 1025.4 7.6 NW 9.2 0.0 0.0
12:55 17.8 12.5 71 1025.4 7.6 W 9.2 0.0 0.0
12:56 17.8 12.5 71 1025.4 6.0 W 9.2 0.0 0.0
12:57 17.8 12.5 71 1025.4 7.6 NW 9.2 0.0 0.0
12:58 17.8 12.3 70 1025.5 6.0 W 9.2 0.0 0.0
12:59 17.8 12.3 70 1025.4 8.3 W 8.3 0.0 0.0
13:00 17.9 12.6 71 1025.4 11.4 NW 11.4 0.0 0.0
13:02 17.9 12.6 71 1025.5 11.4 NW 11.4 0.0 0.0
13:03 18.3 13.0 71 1025.5 5.4 N 11.4 0.0 0.0
13:04 18.3 12.7 70 1025.3 8.3 W 11.4 0.0 0.0
13:05 18.3 12.7 70 1025.5 9.2 SW 11.4 0.0 0.0
13:06 18.3 12.7 70 1025.4 9.2 N 11.4 0.0 0.0
13:07 18.3 12.7 70 1025.3 5.4 NW 11.4 0.0 0.0
13:08 18.4 13.1 71 1025.3 11.4 SW 11.4 0.0 0.0
13:09 18.4 13.1 71 1025.3 11.4 SW 11.4 0.0 0.0
13:10 18.4 13.1 71 1025.2 11.4 W 11.4 0.0 0.0
13:11 18.3 12.7 70 1025.3 8.3 W 11.4 0.0 0.0
13:12 18.2 12.6 70 1025.3 6.9 NW 11.4 0.0 0.0
13:13 18.2 12.6 70 1025.5 9.2 N 11.4 0.0 0.0
13:14 18.0 12.2 69 1025.3 6.9 NW 11.4 0.0 0.0
13:15 18.0 12.2 69 1025.6 7.6 NW 11.4 0.0 0.0
13:16 18.0 12.5 70 1025.3 6.0 N 11.4 0.0 0.0
13:17 17.9 12.4 70 1025.6 6.9 SW 11.4 0.0 0.0
13:18 17.8 12.3 70 1025.4 8.3 NW 11.4 0.0 0.0
13:19 17.8 12.3 70 1025.4 8.3 W 11.4 0.0 0.0
13:20 17.8 12.3 70 1025.3 7.6 NW 9.2 0.0 0.0
13:21 17.7 12.2 70 1025.3 7.6 NW 9.2 0.0 0.0
13:22 17.7 12.4 71 1025.4 7.6 W 9.2 0.0 0.0
13:23 17.7 12.4 71 1025.3 8.3 NW 8.3 0.0 0.0
13:24 17.7 12.4 71 1025.2 11.4 NW 11.4 0.0 0.0
13:25 17.6 12.3 71 1025.5 7.6 W 11.4 0.0 0.0
13:27 17.6 12.5 72 1025.6 8.3 W 11.4 0.0 0.0
13:28 17.6 12.5 72 1025.4 6.0 N 11.4 0.0 0.0
13:29 17.6 12.5 72 1025.6 6.0 SE 11.4 0.0 0.0
13:30 17.6 12.5 72 1025.4 4.5 NW 11.4 0.0 0.0
13:31 17.5 12.2 71 1025.5 6.9 S 11.4 0.0 0.0
13:32 17.5 12.2 71 1025.3 7.6 W 11.4 0.0 0.0
13:33 17.5 12.2 71 1025.3 7.6 W 11.4 0.0 0.0
13:34 17.4 12.9 75 1025.5 6.0 NW 11.4 0.0 0.0
13:35 17.3 12.8 75 1025.5 3.8 NE 9.2 0.0 0.0
13:36 17.3 13.0 76 1025.3 6.9 NW 9.2 0.0 0.0
13:37 17.3 13.0 76 1025.4 9.2 SW 9.2 0.0 0.0
13:38 17.2 12.9 76 1025.3 5.4 NW 9.2 0.0 0.0
13:39 17.2 12.9 76 1025.3 5.4 NW 9.2 0.0 0.0
13:40 17.1 12.8 76 1025.4 9.2 W 9.2 0.0 0.0
13:41 17.0 12.7 76 1025.4 7.6 NW 9.2 0.0 0.0
13:42 16.9 12.7 76 1025.4 7.6 W 9.8 0.0 0.0
13:44 16.8 13.0 78 1025.6 8.3 SW 9.8 0.0 0.0
13:45 16.8 13.1 79 1025.6 7.6 NW 9.8 0.0 0.0
13:46 16.8 13.1 79 1025.2 6.0 SW 9.8 0.0 0.0
13:47 16.9 13.2 79 1025.4 9.8 W 9.8 0.0 0.0
13:48 17.0 13.3 79 1025.4 9.8 W 9.8 0.0 0.0
13:49 17.1 13.4 79 1025.4 8.3 S 9.8 0.0 0.0
13:50 17.2 13.5 79 1025.4 5.4 NW 9.8 0.0 0.0
13:51 17.3 13.6 79 1025.4 9.8 W 9.8 0.0 0.0
13:52 17.3 13.6 79 1025.5 9.8 SW 9.8 0.0 0.0
13:53 17.4 13.7 79 1025.6 10.7 SW 10.7 0.0 0.0
13:54 17.6 13.1 75 1025.2 7.6 N 10.7 0.0 0.0
13:55 17.6 13.1 75 1025.2 11.4 NW 11.4 0.0 0.0
13:56 17.6 12.9 74 1025.4 11.4 SW 11.4 0.0 0.0
13:57 17.6 12.7 73 1025.4 8.3 W 11.4 0.0 0.0
13:58 17.5 12.6 73 1025.4 8.3 W 11.4 0.0 0.0
13:59 17.5 12.6 73 1025.4 8.3 NW 11.4 0.0 0.0
14:00 17.5 12.6 73 1025.3 10.7 W 11.4 0.0 0.0
14:01 17.5 12.6 73 1025.6 10.7 W 11.4 0.0 0.0
14:03 17.4 13.1 76 1025.5 7.6 N 11.4 0.0 0.0
14:04 17.4 13.1 76 1025.2 7.6 W 11.4 0.0 0.0
14:05 17.4 13.3 77 1025.3 9.2 NW 11.4 0.0 0.0
14:06 17.4 13.3 77 1025.1 9.2 NW 10.7 0.0 0.0
14:07 17.5 12.6 73 1025.2 10.7 E 10.7 0.0 0.0
14:08 17.6 12.7 73 1025.5 7.6 N 10.7 0.0 0.0
14:09 17.6 12.7 73 1025.3 6.9 N 10.7 0.0 0.0
14:10 17.6 12.7 73 1025.3 6.9 N 10.7 0.0 0.0
14:11 17.6 12.5 72 1025.3 8.3 E 10.7 0.0 0.0
14:12 17.6 12.5 72 1025.3 8.3 NW 10.7 0.0 0.0
14:13 17.6 12.5 72 1025.3 8.3 W 10.7 0.0 0.0
14:14 17.7 12.6 72 1025.3 7.6 W 10.7 0.0 0.0
14:15 17.7 12.6 72 1025.4 9.8 NW 10.7 0.0 0.0
14:16 17.7 12.6 72 1025.4 9.8 W 10.7 0.0 0.0
14:17 17.8 12.7 72 1025.2 9.8 NW 10.7 0.0 0.0
14:18 17.8 12.9 73 1025.3 6.9 N 9.8 0.0 0.0
14:19 18.0 12.9 72 1025.3 9.8 SW 9.8 0.0 0.0
14:21 18.1 13.0 72 1025.4 8.3 SW 15.9 0.0 0.0
14:22 18.1 13.0 72 1025.1 6.0 NW 15.9 0.0 0.0
14:23 18.2 13.1 72 1025.5 6.0 SW 15.9 0.0 0.0
14:24 18.3 13.4 73 1025.3 9.2 W 15.9 0.0 0.0
14:25 18.4 13.3 72 1025.5 7.6 SW 15.9 0.0 0.0
14:26 18.4 13.3 72 1025.2 8.3 W 15.9 0.0 0.0
14:27 18.4 13.3 72 1025.4 8.3 N 15.9 0.0 0.0
14:28 18.4 13.1 71 1025.4 6.9 NW 15.9 0.0 0.0
14:29 18.4 13.1 71 1025.3 6.9 N 15.9 0.0 0.0
14:30 18.3 13.0 71 1025.3 6.0 W 15.9 0.0 0.0
14:31 18.2 12.9 71 1025.3 5.4 W 9.2 0.0 0.0
14:32 18.2 12.9 71 1025.3 6.9 S 9.2 0.0 0.0
14:33 18.2 12.9 71 1025.3 6.9 W 9.2 0.0 0.0
14:34 18.2 12.9 71 1025.4 6.9 N 9.2 0.0 0.0
14:35 18.3 13.2 72 1025.5 5.4 W 8.3 0.0 0.0
14:36 18.3 13.0 71 1025.5 6.9 W 8.3 0.0 0.0
14:38 18.2 12.9 71 1025.5 6.9 W 8.3 0.0 0.0
14:39 18.2 12.9 71 1025.4 5.4 NW 8.3 0.0 0.0
14:40 18.3 13.0 71 1025.5 7.6 NE 8.3 0.0 0.0
14:41 18.3 13.0 71 1025.3 6.0 W 8.3 0.0 0.0
14:42 18.3 13.0 71 1025.1 6.0 NW 8.3 0.0 0.0
14:43 18.4 13.1 71 1025.5 9.2 NW 9.2 0.0 0.0
14:44 18.4 13.1 71 1025.5 9.2 NW 9.2 0.0 0.0
14:45 18.4 13.1 71 1025.5 9.2 NW 9.2 0.0 0.0
14:46 18.4 12.8 70 1025.5 10.7 NW 10.7 0.0 0.0
14:47 18.3 12.7 70 1025.4 10.7 NW 10.7 0.0 0.0
14:48 18.3 12.5 69 1025.3 8.3 NW 10.7 0.0 0.0
14:49 18.2 12.4 69 1025.5 9.8 NW 10.7 0.0 0.0
14:50 18.2 12.4 69 1025.5 6.9 NW 10.7 0.0 0.0
14:51 18.2 12.4 69 1025.4 9.2 NW 10.7 0.0 0.0
14:52 18.1 12.3 69 1025.4 9.2 N 10.7 0.0 0.0
14:53 18.1 12.6 70 1025.4 6.0 NW 10.7 0.0 0.0
14:54 18.1 12.6 70 1025.4 8.3 W 10.7 0.0 0.0
14:55 18.1 12.6 70 1025.5 10.7 NW 10.7 0.0 0.0
14:57 18.0 12.5 70 1025.5 6.9 W 10.7 0.0 0.0
14:58 18.0 12.5 70 1025.3 10.7 NW 10.7 0.0 0.0
14:59 18.0 12.5 70 1025.4 9.8 W 10.7 0.0 0.0
15:00 18.0 12.5 70 1025.4 9.8 W 10.7 0.0 0.0
15:01 18.0 12.5 70 1025.6 9.8 W 10.7 0.0 0.0
15:02 18.0 12.5 70 1025.6 9.8 W 10.7 0.0 0.0
15:03 18.0 12.5 70 1025.3 9.8 N 10.7 0.0 0.0
15:04 18.0 12.5 70 1025.4 7.6 W 10.7 0.0 0.0
15:05 18.1 12.6 70 1025.2 8.3 NW 10.7 0.0 0.0
15:06 18.2 12.6 70 1025.5 7.6 W 10.7 0.0 0.0
15:07 18.3 12.7 70 1025.6 7.6 SW 10.7 0.0 0.0
15:08 18.4 12.8 70 1025.3 12.1 N 12.1 0.0 0.0
15:09 18.4 12.8 70 1025.3 9.8 W 12.1 0.0 0.0
15:10 18.5 12.9 70 1025.6 7.6 SW 12.1 0.0 0.0
15:11 18.8 13.2 70 1025.5 9.2 W 12.1 0.0 0.0
15:12 18.9 13.1 69 1025.6 6.9 NW 12.1 0.0 0.0
15:14 18.9 13.1 69 1025.5 8.3 N 12.1 0.0 0.0
15:15 18.9 12.9 68 1025.6 9.8 N 12.1 0.0 0.0
15:16 18.9 12.9 68 1025.6 9.8 W 12.1 0.0 0.0
15:17 18.9 12.6 67 1025.5 6.0 NW 12.1 0.0 0.0
15:19 18.9 12.9 68 1025.5 9.2 W 13.6 0.0 0.0
15:20 18.9 13.1 69 1025.4 9.2 N 13.6 0.0 0.0
15:21 18.9 12.9 68 1025.5 6.0 NW 13.6 0.0 0.0
15:22 18.9 12.9 68 1025.5 12.1 W 13.6 0.0 0.0
15:23 18.8 12.6 67 1025.4 8.3 SE 13.6 0.0 0.0
15:24 18.8 12.8 68 1025.5 9.8 NW 13.6 0.0 0.0
15:25 18.8 12.8 68 1025.6 8.3 NW 13.6 0.0 0.0
15:26 18.9 12.9 68 1025.5 7.6 NW 13.6 0.0 0.0
15:27 18.9 12.9 68 1025.5 5.4 W 13.6 0.0 0.0
15:28 19.0 13.2 69 1025.7 5.4 N 13.6 0.0 0.0
15:29 19.1 13.3 69 1025.5 8.3 NW 12.1 0.0 0.0
15:30 19.2 13.2 68 1025.6 7.6 NW 12.1 0.0 0.0
15:31 19.1 12.8 67 1025.5 9.2 NW 12.1 0.0 0.0
15:32 19.1 12.8 67 1025.6 9.2 NW 12.1 0.0 0.0
15:33 19.0 12.5 66 1025.7 8.3 N 9.8 0.0 0.0
15:34 18.8 12.1 65 1025.7 9.2 W 9.8 0.0 0.0
15:36 18.7 12.0 65 1025.9 9.2 NW 9.8 0.0 0.0
15:37 18.6 11.9 65 1025.5 11.4 N 11.4 0.0 0.0
15:38 18.5 11.6 64 1025.6 6.9 W 11.4 0.0 0.0
15:39 18.4 11.7 65 1025.5 9.8 N 11.4 0.0 0.0
15:40 18.4 11.7 65 1025.6 9.2 N 11.4 0.0 0.0
15:41 18.4 11.7 65 1025.6 9.2 N 11.4 0.0 0.0
15:42 18.3 11.8 66 1025.6 9.8 N 11.4 0.0 0.0
15:43 18.3 11.8 66 1025.6 6.9 SE 11.4 0.0 0.0
15:44 18.3 12.1 67 1025.6 6.9 NE 11.4 0.0 0.0
15:45 18.3 12.3 68 1025.8 6.9 NW 11.4 0.0 0.0
15:46 18.3 12.5 69 1025.5 5.4 E 11.4 0.0 0.0
15:47 18.3 12.5 69 1025.6 10.7 NW 11.4 0.0 0.0
15:48 18.3 12.5 69 1025.6 7.6 N 10.7 0.0 0.0
15:49 18.2 12.4 69 1025.7 7.6 N 10.7 0.0 0.0
15:50 18.2 12.4 69 1025.5 7.6 E 10.7 0.0 0.0
15:52 18.2 12.4 69 1025.6 9.2 NW 10.7 0.0 0.0
15:53 18.2 12.2 68 1025.5 8.3 N 10.7 0.0 0.0
15:54 18.1 12.1 68 1025.6 8.3 NW 10.7 0.0 0.0
15:55 18.0 11.8 67 1025.6 9.8 NW 10.7 0.0 0.0
15:56 18.0 11.8 67 1025.5 9.8 W 10.7 0.0 0.0
15:57 17.9 11.9 68 1025.6 7.6 NE 9.8 0.0 0.0
15:58 17.9 11.7 67 1025.4 9.2 NW 9.8 0.0 0.0
15:59 17.9 11.7 67 1025.6 5.4 W 9.8 0.0 0.0
16:00 17.9 11.9 68 1025.6 11.4 NW 11.4 0.0 0.0
16:01 17.9 11.9 68 1025.6 11.4 NW 11.4 0.0 0.0
16:02 17.9 11.9 68 1025.5 11.4 NW 11.4 0.0 0.0
16:03 17.8 11.8 68 1025.6 11.4 W 11.4 0.0 0.0
16:04 17.8 11.8 68 1025.4 9.8 N 11.4 0.0 0.0
16:05 17.8 11.8 68 1025.5 10.7 N 11.4 0.0 0.0
16:06 17.7 11.9 69 1025.4 7.6 NW 11.4 0.0 0.0
16:07 17.7 11.9 69 1025.5 6.0 NW 11.4 0.0 0.0
16:09 17.8 12.0 69 1025.4 4.5 NW 11.4 0.0 0.0
16:10 17.8 12.0 69 1025.6 5.4 NW 11.4 0.0 0.0
16:11 17.9 12.1 69 1025.4 8.3 NW 11.4 0.0 0.0
16:12 17.9 12.1 69 1025.6 8.3 E 11.4 0.0 0.0
16:13 17.9 12.1 69 1025.4 5.4 NW 10.7 0.0 0.0
16:14 17.9 12.1 69 1025.5 6.0 S 10.7 0.0 0.0
16:15 17.9 12.1 69 1025.4 9.8 N 9.8 0.0 0.0
16:16 17.9 12.1 69 1025.4 9.8 N 9.8 0.0 0.0
16:17 17.9 12.1 69 1025.5 6.9 NE 9.8 0.0 0.0
16:18 18.0 12.5 70 1025.4 9.2 NW 9.8 0.0 0.0
16:19 18.0 12.5 70 1025.4 4.5 NW 9.8 0.0 0.0
16:20 18.0 12.5 70 1025.5 6.9 NW 9.8 0.0 0.0
16:21 18.0 12.5 70 1025.4 6.0 N 9.8 0.0 0.0
16:22 18.0 12.5 70 1025.3 6.9 N 9.8 0.0 0.0
16:23 18.0 12.5 70 1025.6 9.2 NW 9.8 0.0 0.0
16:24 17.9 12.1 69 1025.3 6.9 NW 9.8 0.0 0.0
16:26 17.9 12.4 70 1025.3 8.3 NW 9.2 0.0 0.0
16:27 17.9 12.4 70 1025.4 6.0 W 9.2 0.0 0.0
16:28 17.9 12.6 71 1025.2 3.8 W 9.2 0.0 0.0
16:29 17.9 12.6 71 1025.4 5.4 SW 9.2 0.0 0.0
16:30 17.9 12.6 71 1025.4 7.6 SW 9.2 0.0 0.0
16:31 18.0 12.7 71 1025.3 6.0 SW 9.2 0.0 0.0
16:32 18.0 12.7 71 1025.3 6.0 SW 9.2 0.0 0.0
16:33 17.9 12.6 71 1025.4 8.3 SW 9.2 0.0 0.0
16:34 17.9 12.6 71 1025.3 6.9 W 8.3 0.0 0.0
16:35 17.9 12.6 71 1025.6 8.3 WNW 8.3 0.0 0.0
16:36 17.9 12.6 71 1025.2 6.0 NW 8.3 0.0 0.0
16:37 17.9 12.6 71 1025.3 6.0 NW 8.3 0.0 0.0
16:38 17.8 12.5 71 1025.3 7.6 W 8.3 0.0 0.0
16:39 17.8 12.5 71 1025.4 8.3 NW 8.3 0.0 0.0
16:41 17.7 12.4 71 1025.5 6.9 W 9.8 0.0 0.0
16:42 17.7 12.4 71 1025.4 6.9 W 9.8 0.0 0.0
16:43 17.7 12.4 71 1025.2 6.9 W 9.8 0.0 0.0
16:44 17.7 12.4 71 1025.3 4.5 W 9.8 0.0 0.0
16:45 17.7 12.4 71 1025.3 8.3 NW 9.8 0.0 0.0
16:46 17.7 12.4 71 1025.2 8.3 NW 9.8 0.0 0.0
16:47 17.6 12.3 71 1025.2 7.6 SW 9.8 0.0 0.0
16:48 17.6 12.3 71 1025.2 7.6 SW 9.8 0.0 0.0
16:49 17.6 12.1 70 1025.4 7.6 NW 9.8 0.0 0.0
16:50 17.5 12.0 70 1025.2 10.7 NE 10.7 0.0 0.0
16:51 17.5 12.0 70 1025.1 6.0 W 10.7 0.0 0.0
16:52 17.5 12.0 70 1025.3 5.4 W 10.7 0.0 0.0
16:53 17.5 12.2 71 1025.1 6.0 NW 10.7 0.0 0.0
16:54 17.5 12.2 71 1025.4 6.0 W 10.7 0.0 0.0
16:55 17.5 12.2 71 1025.2 5.4 SW 10.7 0.0 0.0
16:56 17.4 12.7 74 1025.3 7.6 NW 10.7 0.0 0.0
16:57 17.4 12.7 74 1025.3 5.4 NE 10.7 0.0 0.0
16:59 17.3 13.0 76 1025.3 4.5 N 10.7 0.0 0.0
17:00 17.3 13.0 76 1025.1 4.5 N 9.2 0.0 0.0
17:01 17.3 13.0 76 1025.3 4.5 N 9.2 0.0 0.0
17:02 17.3 13.0 76 1025.0 4.5 N 9.2 0.0 0.0
17:03 17.3 13.0 76 1025.3 4.5 N 9.2 0.0 0.0
17:04 17.3 13.0 76 1025.3 4.5 N 7.6 0.0 0.0
17:05 17.3 13.0 76 1025.4 4.5 N 7.6 0.0 0.0
17:06 17.3 13.0 76 1025.2 4.5 N 6.9 0.0 0.0
17:07 17.3 13.0 76 1025.4 4.5 N 6.9 0.0 0.0
17:08 17.3 13.0 76 1025.2 4.5 N 6.9 0.0 0.0
17:09 17.3 13.0 76 1025.2 4.5 N 6.9 0.0 0.0
17:10 17.3 13.0 76 1025.3 6.0 N 6.0 0.0 0.0
17:11 17.3 13.0 76 1025.1 3.8 NW 6.0 0.0 0.0
17:12 17.3 13.0 76 1025.2 7.6 NW 7.6 0.0 0.0
17:13 17.3 13.0 76 1025.2 6.9 NW 7.6 0.0 0.0
17:14 17.3 13.0 76 1025.4 5.4 NW 7.6 0.0 0.0
17:15 17.3 13.0 76 1025.3 4.5 NW 7.6 0.0 0.0
17:16 17.3 13.0 76 1025.3 4.5 NW 7.6 0.0 0.0
17:17 17.3 13.2 77 1025.4 6.9 NE 7.6 0.0 0.0
17:18 17.2 13.3 78 1025.4 4.5 W 7.6 0.0 0.0
17:19 17.2 13.3 78 1025.2 6.0 SW 7.6 0.0 0.0
17:20 17.3 13.4 78 1025.3 4.5 W 7.6 0.0 0.0
17:21 17.3 13.6 79 1025.2 5.4 NW 7.6 0.0 0.0
17:22 17.3 13.4 78 1025.4 4.5 W 6.9 0.0 0.0
17:24 17.3 13.4 78 1025.3 5.4 NW 6.9 0.0 0.0
17:25 17.3 13.4 78 1025.4 3.8 W 6.9 0.0 0.0
17:26 17.3 13.4 78 1025.4 6.9 NW 6.9 0.0 0.0
17:27 17.2 13.1 77 1025.4 3.8 W 6.9 0.0 0.0
17:28 17.2 13.1 77 1025.3 6.0 NE 6.9 0.0 0.0
17:29 17.1 13.0 77 1025.3 6.9 W 6.9 0.0 0.0
17:30 17.1 13.2 78 1025.5 6.9 NW 6.9 0.0 0.0
17:31 17.1 13.2 78 1025.2 5.4 W 6.9 0.0 0.0
17:32 17.1 13.4 79 1025.4 6.9 NW 6.9 0.0 0.0
17:33 17.1 13.4 79 1025.3 5.4 SW 6.9 0.0 0.0
17:34 17.1 13.4 79 1025.3 5.4 NW 6.9 0.0 0.0
17:35 17.2 13.5 79 1025.2 6.0 NW 6.9 0.0 0.0
17:36 17.2 13.5 79 1025.3 4.5 NW 6.9 0.0 0.0
17:37 17.2 13.5 79 1025.2 6.0 N 6.9 0.0 0.0
17:38 17.2 13.5 79 1025.4 4.5 W 6.9 0.0 0.0
17:39 17.1 13.4 79 1025.4 4.5 NW 6.9 0.0 0.0
17:40 17.1 13.4 79 1025.1 5.4 W 6.9 0.0 0.0
17:41 17.0 13.3 79 1025.3 5.4 W 6.9 0.0 0.0
17:43 16.9 13.2 79 1025.4 4.5 NW 6.0 0.0 0.0
17:44 16.9 13.4 80 1025.4 4.5 SE 6.0 0.0 0.0
17:45 16.9 13.4 80 1025.3 3.1 W 6.0 0.0 0.0
17:46 16.9 13.4 80 1025.2 6.0 N 6.0 0.0 0.0
17:47 16.9 13.4 80 1025.2 6.0 N 6.0 0.0 0.0
17:48 16.8 13.3 80 1025.3 3.8 W 6.0 0.0 0.0
17:49 16.8 13.3 80 1025.3 3.8 N 6.0 0.0 0.0
17:50 16.8 13.3 80 1025.2 3.8 W 6.0 0.0 0.0
17:51 16.8 13.3 80 1025.2 3.1 S 6.0 0.0 0.0
17:52 16.8 13.3 80 1025.3 4.5 W 6.0 0.0 0.0
17:53 16.8 13.3 80 1025.1 4.5 N 6.0 0.0 0.0
17:54 16.8 13.3 80 1025.1 3.1 NW 6.0 0.0 0.0
17:55 16.8 13.5 81 1025.2 3.8 W 6.0 0.0 0.0
17:56 16.8 13.5 81 1025.1 3.8 NW 6.0 0.0 0.0
17:57 16.8 13.5 81 1025.2 3.8 W 6.0 0.0 0.0
17:58 16.9 13.8 82 1025.2 4.5 NW 4.5 0.0 0.0
17:59 16.9 13.8 82 1025.3 4.5 NW 4.5 0.0 0.0
18:00 17.0 13.9 82 1025.3 3.8 NW 4.5 0.0 0.0
18:02 17.0 13.9 82 1024.9 4.5 NW 5.4 0.0 0.0
18:03 17.1 13.8 81 1025.2 4.5 WNW 5.4 0.0 0.0
18:04 17.1 13.8 81 1025.2 5.4 W 5.4 0.0 0.0
18:05 17.1 14.0 82 1025.2 6.0 SW 6.0 0.0 0.0
18:06 17.1 14.0 82 1025.4 6.9 NE 6.9 0.0 0.0
18:07 17.2 13.9 81 1025.2 5.4 NW 6.9 0.0 0.0
18:08 17.2 13.9 81 1025.1 5.4 NW 6.9 0.0 0.0
18:09 17.2 13.9 81 1025.1 5.4 NW 6.9 0.0 0.0
18:10 17.2 13.9 81 1024.9 5.4 N 6.9 0.0 0.0
18:11 17.2 13.9 81 1025.2 6.0 N 6.9 0.0 0.0
18:12 17.2 13.9 81 1025.2 6.9 NW 6.9 0.0 0.0
18:13 17.2 13.9 81 1025.1 6.0 W 6.9 0.0 0.0
18:14 17.1 13.8 81 1025.2 6.0 W 6.9 0.0 0.0
18:15 17.1 13.8 81 1025.2 4.5 W 6.9 0.0 0.0
18:16 17.1 13.8 81 1025.2 4.5 NW 6.9 0.0 0.0
18:17 17.0 13.7 81 1025.3 6.0 NW 6.9 0.0 0.0
18:18 17.0 13.7 81 1025.2 6.0 NW 6.9 0.0 0.0
18:19 16.9 13.6 81 1025.1 5.4 N 6.9 0.0 0.0
18:20 16.8 13.5 81 1025.5 3.8 NW 6.9 0.0 0.0
18:22 16.8 13.5 81 1025.3 5.4 NW 6.0 0.0 0.0
18:23 16.8 13.5 81 1025.2 4.5 SE 6.0 0.0 0.0
18:24 16.7 13.4 81 1025.2 2.2 NW 6.0 0.0 0.0
18:25 16.7 13.4 81 1025.5 2.2 NW 6.0 0.0 0.0
18:26 16.7 13.4 81 1025.2 2.2 NW 6.0 0.0 0.0
18:27 16.8 13.7 82 1025.3 3.1 WNW 6.0 0.0 0.0
18:28 16.8 13.7 82 1025.3 3.1 WNW 6.0 0.0 0.0
18:29 16.8 13.7 82 1025.2 3.1 WNW 6.0 0.0 0.0
18:30 16.8 13.7 82 1025.5 4.5 NW 5.4 0.0 0.0
18:31 16.8 13.7 82 1025.2 3.8 N 5.4 0.0 0.0
18:32 16.8 13.7 82 1025.3 3.8 N 5.4 0.0 0.0
18:33 16.7 13.6 82 1025.4 6.0 N 6.0 0.0 0.0
18:34 16.7 13.6 82 1025.2 3.8 N 6.0 0.0 0.0
18:35 16.7 13.6 82 1025.4 4.5 NW 6.0 0.0 0.0
18:36 16.7 13.6 82 1025.4 3.8 NW 6.0 0.0 0.0
18:37 16.7 13.6 82 1025.3 6.0 N 6.0 0.0 0.0
18:38 16.7 13.6 82 1025.4 6.0 W 6.0 0.0 0.0
18:40 16.6 13.5 82 1025.5 4.5 NW 6.0 0.0 0.0
18:41 16.6 13.5 82 1025.4 4.5 NW 6.0 0.0 0.0
18:42 16.6 13.5 82 1025.2 4.5 N 6.0 0.0 0.0
18:43 16.6 13.5 82 1025.3 4.5 NW 6.0 0.0 0.0
18:44 16.6 13.5 82 1025.4 4.5 NW 6.0 0.0 0.0
18:45 16.5 13.4 82 1025.4 6.0 W 6.0 0.0 0.0
18:46 16.4 13.3 82 1025.5 5.4 W 6.0 0.0 0.0
18:47 16.4 13.3 82 1025.5 5.4 W 6.0 0.0 0.0
18:48 16.4 13.3 82 1025.6 5.4 W 6.0 0.0 0.0
18:49 16.4 13.3 82 1025.4 5.4 W 6.0 0.0 0.0
18:50 16.4 13.3 82 1025.5 5.4 W 6.0 0.0 0.0
18:51 16.2 13.1 82 1025.4 3.8 NW 6.0 0.0 0.0
18:52 16.1 13.0 82 1025.4 2.2 W 6.0 0.0 0.0
18:53 16.1 13.0 82 1025.5 5.4 N 6.0 0.0 0.0
18:54 16.1 13.2 83 1025.3 3.8 NW 6.0 0.0 0.0
18:55 16.0 13.1 83 1025.6 5.4 SW 6.0 0.0 0.0
18:56 16.0 13.1 83 1025.6 6.9 W 6.9 0.0 0.0
18:58 15.9 13.0 83 1025.6 5.4 W 6.9 0.0 0.0
18:59 15.9 13.0 83 1025.4 4.5 NW 6.9 0.0 0.0
19:00 15.9 13.0 83 1025.4 4.5 NW 6.9 0.0 0.0
19:01 15.9 13.0 83 1025.5 4.5 NW 6.9 0.0 0.0
19:02 15.9 13.0 83 1025.5 4.5 NW 6.9 0.0 0.0
19:03 15.9 13.0 83 1025.4 3.8 NE 6.9 0.0 0.0
19:04 15.9 13.0 83 1025.4 5.4 NW 6.9 0.0 0.0
19:05 15.9 13.0 83 1025.4 5.4 NW 6.9 0.0 0.0
19:06 15.9 13.0 83 1025.3 5.4 N 6.9 0.0 0.0
19:07 15.9 13.0 83 1025.4 6.0 W 6.0 0.0 0.0
19:08 15.9 13.0 83 1025.4 4.5 NW 6.0 0.0 0.0
19:09 15.9 13.0 83 1025.3 3.8 NE 6.0 0.0 0.0
19:10 15.9 13.0 83 1025.3 5.4 W 6.0 0.0 0.0
19:11 15.9 13.0 83 1025.3 7.6 W 7.6 0.0 0.0
19:12 15.9 13.0 83 1025.2 7.6 W 7.6 0.0 0.0
19:13 15.9 13.0 83 1025.4 4.5 W 7.6 0.0 0.0
19:14 15.9 13.0 83 1025.2 6.9 N 7.6 0.0 0.0
19:15 15.9 13.0 83 1025.4 6.9 N 7.6 0.0 0.0
19:16 15.9 13.0 83 1025.4 4.5 W 7.6 0.0 0.0
19:17 15.9 13.0 83 1025.6 4.5 W 7.6 0.0 0.0
19:18 15.8 12.9 83 1025.4 6.9 NW 7.6 0.0 0.0
19:19 15.8 12.9 83 1025.5 6.0 W 7.6 0.0 0.0
19:21 15.8 12.9 83 1025.5 4.5 NW 7.6 0.0 0.0
19:22 15.8 12.9 83 1025.1 5.4 W 6.9 0.0 0.0
19:24 15.8 12.9 83 1025.3 3.1 W 6.9 0.0 0.0
19:25 15.8 12.9 83 1025.2 3.1 E 6.9 0.0 0.0
19:26 15.8 12.9 83 1025.2 3.8 NW 6.9 0.0 0.0
19:27 15.8 13.1 84 1025.1 3.8 NW 6.9 0.0 0.0
19:28 15.8 13.1 84 1025.3 3.8 NW 6.9 0.0 0.0
19:29 15.8 13.1 84 1025.2 5.4 WNW 6.0 0.0 0.0
19:30 15.8 13.1 84 1025.3 3.8 NNE 5.4 0.0 0.0
19:31 15.8 13.1 84 1025.3 3.8 N 5.4 0.0 0.0
19:32 15.8 13.1 84 1025.2 5.4 NW 5.4 0.0 0.0
19:33 15.8 13.1 84 1025.3 5.4 N 5.4 0.0 0.0
19:34 15.8 13.1 84 1025.5 5.4 NW 5.4 0.0 0.0
19:35 15.8 13.1 84 1025.2 6.0 N 6.0 0.0 0.0
19:36 15.8 13.1 84 1025.3 4.5 NW 6.0 0.0 0.0
19:37 15.8 13.1 84 1025.4 4.5 NW 6.0 0.0 0.0
19:38 15.8 13.1 84 1025.4 6.0 NW 6.0 0.0 0.0
19:39 15.8 13.1 84 1025.4 6.0 NE 6.0 0.0 0.0
19:40 15.8 13.1 84 1025.2 6.0 NE 6.0 0.0 0.0
19:42 15.7 13.0 84 1025.3 3.8 S 6.0 0.0 0.0
19:43 15.7 13.0 84 1025.3 4.5 NW 6.0 0.0 0.0
19:44 15.7 13.0 84 1025.3 3.1 NW 6.0 0.0 0.0
19:45 15.7 13.0 84 1025.2 2.2 NW 6.0 0.0 0.0
19:46 15.7 13.0 84 1025.3 4.5 N 6.0 0.0 0.0
19:47 15.6 13.1 85 1025.3 3.1 NW 6.0 0.0 0.0
19:48 15.6 13.1 85 1025.3 3.8 N 6.0 0.0 0.0
19:49 15.6 13.1 85 1025.3 3.8 N 6.0 0.0 0.0
19:50 15.6 13.1 85 1025.2 3.1 NW 4.5 0.0 0.0
19:51 15.6 13.1 85 1025.6 3.1 NW 4.5 0.0 0.0
19:52 15.6 13.1 85 1025.5 3.1 NW 4.5 0.0 0.0
19:53 15.6 13.3 86 1025.3 3.1 NW 4.5 0.0 0.0
19:54 15.6 13.3 86 1025.4 3.8 NW 4.5 0.0 0.0
19:55 15.6 13.3 86 1025.4 3.8 NW 4.5 0.0 0.0
19:56 15.6 13.3 86 1025.4 3.8 W 4.5 0.0 0.0
19:57 15.5 13.2 86 1025.6 4.5 NW 4.5 0.0 0.0
19:58 15.5 13.2 86 1025.4 3.1 W 4.5 0.0 0.0
19:59 15.5 13.2 86 1025.4 3.8 W 4.5 0.0 0.0
20:01 15.5 13.2 86 1025.4 3.8 W 4.5 0.0 0.0
20:02 15.5 13.2 86 1025.4 3.8 W 4.5 0.0 0.0
20:03 15.5 13.2 86 1025.6 3.8 W 4.5 0.0 0.0
20:04 15.5 13.2 86 1025.3 3.8 W 4.5 0.0 0.0
20:05 15.4 13.1 86 1025.2 4.5 W 4.5 0.0 0.0
20:06 15.4 13.1 86 1025.4 4.5 W 4.5 0.0 0.0
20:07 15.3 13.0 86 1025.3 3.1 NW 4.5 0.0 0.0
20:08 15.3 13.0 86 1025.3 3.1 NW 4.5 0.0 0.0
20:09 15.3 13.0 86 1025.3 3.1 W 4.5 0.0 0.0
20:10 15.3 13.0 86 1025.5 3.1 W 4.5 0.0 0.0
20:11 15.3 13.0 86 1025.4 3.1 N 4.5 0.0 0.0
20:12 15.3 13.0 86 1025.6 3.1 W 4.5 0.0 0.0
20:13 15.3 13.0 86 1025.4 3.1 W 4.5 0.0 0.0
20:14 15.3 13.2 87 1025.6 2.2 NW 4.5 0.0 0.0
20:15 15.3 13.2 87 1025.4 3.1 W 4.5 0.0 0.0
20:16 15.3 13.2 87 1025.4 2.2 W 4.5 0.0 0.0
20:17 15.3 13.2 87 1025.5 2.2 NW 3.8 0.0 0.0
20:19 15.3 13.2 87 1025.4 2.2 NW 3.1 0.0 0.0
20:20 15.3 13.2 87 1025.6 2.2 W 3.1 0.0 0.0
20:21 15.3 13.2 87 1025.3 3.8 W 3.8 0.0 0.0
20:22 15.2 13.1 87 1025.4 3.8 W 3.8 0.0 0.0
20:23 15.2 13.1 87 1025.3 2.2 W 3.8 0.0 0.0
20:24 15.3 13.2 87 1025.5 3.8 W 3.8 0.0 0.0
20:25 15.2 13.1 87 1025.6 3.1 W 3.8 0.0 0.0
20:26 15.2 13.1 87 1025.4 3.1 W 3.8 0.0 0.0
20:27 15.2 13.1 87 1025.5 3.1 W 3.8 0.0 0.0
20:28 15.2 13.1 87 1025.3 1.6 W 3.8 0.0 0.0
20:29 15.2 13.1 87 1025.5 0.7 W 3.8 0.0 0.0
20:30 15.2 13.1 87 1025.3 2.2 W 3.8 0.0 0.0
20:31 15.2 13.2 88 1025.6 2.2 N 3.8 0.0 0.0
20:32 15.2 13.2 88 1025.6 2.2 W 3.8 0.0 0.0
20:33 15.2 13.2 88 1025.4 1.6 W 3.8 0.0 0.0
20:34 15.2 13.2 88 1025.5 5.4 SW 5.4 0.0 0.0
20:35 15.2 13.2 88 1025.5 4.5 SW 5.4 0.0 0.0
20:36 15.2 13.2 88 1025.4 3.8 W 5.4 0.0 0.0
20:37 15.2 13.2 88 1025.4 4.5 W 5.4 0.0 0.0
20:39 15.2 13.2 88 1025.6 3.1 SW 5.4 0.0 0.0
20:40 15.1 13.0 87 1025.5 3.1 W 5.4 0.0 0.0
20:41 15.1 13.0 87 1025.5 3.8 W 5.4 0.0 0.0
20:42 15.1 13.0 87 1025.6 4.5 W 5.4 0.0 0.0
20:43 15.1 13.0 87 1025.6 6.0 W 6.0 0.0 0.0
20:44 15.0 12.9 87 1025.6 3.8 SSW 6.0 0.0 0.0
20:45 15.0 12.9 87 1025.6 3.8 SSW 6.0 0.0 0.0
20:46 15.0 12.9 87 1025.5 6.0 NW 6.0 0.0 0.0
20:47 15.0 12.9 87 1025.5 4.5 W 6.0 0.0 0.0
20:48 15.0 12.9 87 1025.6 4.5 W 6.0 0.0 0.0
20:49 15.0 12.9 87 1025.4 4.5 W 6.0 0.0 0.0
20:50 14.9 12.8 87 1025.5 3.8 NW 6.0 0.0 0.0
20:51 14.9 12.8 87 1025.6 3.8 W 6.0 0.0 0.0
20:52 14.9 12.8 87 1025.6 3.8 W 6.0 0.0 0.0
20:53 14.9 12.8 87 1025.4 2.2 WNW 6.0 0.0 0.0
20:54 14.9 12.8 87 1025.6 1.6 N 6.0 0.0 0.0
20:55 14.9 12.8 87 1025.5 3.8 W 6.0 0.0 0.0
20:57 14.8 12.7 87 1025.6 2.2 W 4.5 0.0 0.0
20:58 14.8 12.7 87 1025.6 4.5 W 4.5 0.0 0.0
20:59 14.8 12.8 88 1025.5 4.5 NW 4.5 0.0 0.0
21:00 14.8 12.8 88 1025.6 4.5 NW 4.5 0.0 0.0
21:01 14.8 12.8 88 1025.5 4.5 NW 4.5 0.0 0.0
21:02 14.8 12.8 88 1025.7 4.5 NW 4.5 0.0 0.0
21:03 14.8 12.8 88 1025.8 4.5 NW 4.5 0.0 0.0
21:04 14.8 12.8 88 1025.8 4.5 NW 4.5 0.0 0.0
21:05 14.8 12.8 88 1025.6 4.5 NW 4.5 0.0 0.0
21:06 14.8 12.8 88 1025.5 4.5 NW 4.5 0.0 0.0
21:07 14.6 12.6 88 1025.7 3.8 W 4.5 0.0 0.0
21:08 14.6 12.6 88 1025.8 5.4 NW 5.4 0.0 0.0
21:09 14.6 12.6 88 1025.7 4.5 W 5.4 0.0 0.0
21:10 14.6 12.6 88 1025.7 5.4 NW 5.4 0.0 0.0
21:11 14.6 12.6 88 1025.6 3.1 W 5.4 0.0 0.0
21:12 14.5 12.5 88 1025.8 3.1 NW 5.4 0.0 0.0
21:13 14.5 12.5 88 1025.9 4.5 W 5.4 0.0 0.0
21:14 14.5 12.5 88 1025.7 3.1 W 5.4 0.0 0.0
21:15 14.5 12.5 88 1025.6 3.8 SW 5.4 0.0 0.0
21:17 14.4 12.4 88 1025.6 3.8 W 5.4 0.0 0.0
21:18 14.4 12.4 88 1025.9 3.8 W 5.4 0.0 0.0
21:19 14.4 12.4 88 1025.7 3.8 W 5.4 0.0 0.0
21:20 14.4 12.4 88 1025.7 4.5 W 4.5 0.0 0.0
21:22 14.4 12.4 88 1025.7 4.5 W 4.5 0.0 0.0
21:23 14.4 12.6 89 1026.0 3.1 W 4.5 0.0 0.0
21:24 14.4 12.6 89 1025.8 5.4 W 5.4 0.0 0.0
21:25 14.4 12.6 89 1025.9 5.4 W 5.4 0.0 0.0
21:26 14.4 12.6 89 1025.9 5.4 W 5.4 0.0 0.0
21:27 14.4 12.6 89 1025.9 3.1 NW 5.4 0.0 0.0
21:28 14.4 12.6 89 1025.9 3.1 NW 5.4 0.0 0.0
21:29 14.4 12.6 89 1025.9 3.1 NW 5.4 0.0 0.0
21:30 14.4 12.6 89 1025.9 4.5 NW 5.4 0.0 0.0
21:31 14.4 12.6 89 1025.8 3.1 NW 5.4 0.0 0.0
21:32 14.4 12.6 89 1026.1 3.1 W 5.4 0.0 0.0
21:33 14.3 12.5 89 1026.0 7.6 SW 7.6 0.0 0.0
21:34 14.3 12.5 89 1025.9 3.8 W 7.6 0.0 0.0
21:35 14.3 12.5 89 1026.0 3.8 W 7.6 0.0 0.0
21:36 14.3 12.5 89 1025.9 3.1 NW 7.6 0.0 0.0
21:37 14.3 12.5 89 1026.0 3.1 NW 7.6 0.0 0.0
21:38 14.2 12.4 89 1025.9 3.1 W 7.6 0.0 0.0
21:40 14.2 12.4 89 1026.0 3.1 W 7.6 0.0 0.0
21:41 14.2 12.4 89 1026.1 2.2 NW 7.6 0.0 0.0
21:42 14.2 12.4 89 1025.8 2.2 W 7.6 0.0 0.0
21:43 14.1 12.3 89 1026.0 4.5 NW 7.6 0.0 0.0
21:44 14.1 12.3 89 1026.1 3.1 NW 4.5 0.0 0.0
21:45 14.1 12.3 89 1025.9 3.1 W 4.5 0.0 0.0
21:46 14.1 12.3 89 1026.2 2.2 W 4.5 0.0 0.0
21:47 14.1 12.3 89 1025.9 2.2 W 4.5 0.0 0.0
21:48 14.0 12.2 89 1026.0 2.2 W 4.5 0.0 0.0
21:49 14.0 12.2 89 1026.0 2.2 W 4.5 0.0 0.0
21:50 14.0 12.2 89 1025.8 2.2 W 4.5 0.0 0.0
21:51 14.0 12.2 89 1025.9 3.8 W 4.5 0.0 0.0
21:52 14.0 12.2 89 1025.8 3.1 SW 4.5 0.0 0.0
21:53 13.9 12.1 89 1026.1 3.1 WNW 4.5 0.0 0.0
21:54 13.9 12.1 89 1025.9 3.1 W 4.5 0.0 0.0
21:55 13.9 12.1 89 1026.0 3.8 W 3.8 0.0 0.0
21:56 13.9 12.1 89 1026.1 3.1 W 3.8 0.0 0.0
21:57 13.8 12.0 89 1026.0 3.8 SW 4.5 0.0 0.0
21:59 13.8 12.0 89 1025.9 3.8 WNW 4.5 0.0 0.0
22:00 13.8 12.0 89 1026.0 3.8 W 4.5 0.0 0.0
22:01 13.8 12.0 89 1026.1 4.5 W 4.5 0.0 0.0
22:02 13.8 12.2 90 1026.2 4.5 W 4.5 0.0 0.0
22:03 13.8 12.2 90 1026.3 3.1 W 4.5 0.0 0.0
22:04 13.8 12.2 90 1026.1 3.1 W 4.5 0.0 0.0
22:05 13.8 12.2 90 1026.3 3.1 W 4.5 0.0 0.0
22:06 13.7 12.1 90 1026.2 2.2 NW 4.5 0.0 0.0
22:07 13.7 12.1 90 1026.3 2.2 W 4.5 0.0 0.0
22:08 13.7 12.1 90 1026.2 3.1 W 4.5 0.0 0.0
22:09 13.7 12.1 90 1026.2 3.8 W 4.5 0.0 0.0
22:10 13.7 12.1 90 1026.1 3.8 W 4.5 0.0 0.0
22:11 13.7 12.1 90 1026.2 2.2 W 4.5 0.0 0.0
22:12 13.7 12.1 90 1026.3 1.6 NW 4.5 0.0 0.0
22:13 13.7 12.1 90 1026.2 1.6 W 3.8 0.0 0.0
22:14 13.6 12.0 90 1026.1 3.1 W 3.8 0.0 0.0
22:15 13.6 12.0 90 1026.1 3.1 W 3.8 0.0 0.0
22:16 13.6 12.0 90 1026.5 2.2 NW 3.8 0.0 0.0
22:18 13.6 12.0 90 1026.5 2.2 W 3.8 0.0 0.0
22:19 13.6 12.0 90 1026.2 2.2 W 3.8 0.0 0.0
22:20 13.6 12.0 90 1026.2 2.2 W 3.8 0.0 0.0
22:21 13.6 12.0 90 1026.1 2.2 W 3.8 0.0 0.0
22:22 13.6 12.0 90 1026.3 2.2 W 3.8 0.0 0.0
22:23 13.5 11.9 90 1026.4 2.2 W 3.8 0.0 0.0
22:24 13.5 11.9 90 1026.4 1.6 W 3.1 0.0 0.0
22:25 13.5 11.9 90 1026.4 1.6 W 3.1 0.0 0.0
22:26 13.5 11.9 90 1026.3 2.2 W 3.1 0.0 0.0
22:27 13.5 12.1 91 1026.3 2.2 W 3.1 0.0 0.0
22:28 13.5 12.1 91 1026.3 2.2 W 3.1 0.0 0.0
22:29 13.5 12.1 91 1026.4 2.2 W 3.1 0.0 0.0
22:30 13.5 12.1 91 1026.4 2.2 NW 3.1 0.0 0.0
22:31 13.5 12.1 91 1026.4 2.2 W 3.1 0.0 0.0
22:32 13.5 12.1 91 1026.3 1.6 W 3.1 0.0 0.0
22:33 13.4 12.0 91 1026.4 2.2 W 3.1 0.0 0.0
22:34 13.4 12.0 91 1026.3 2.2 SW 2.2 0.0 0.0
22:35 13.4 12.0 91 1026.4 2.2 NW 2.2 0.0 0.0
22:37 13.4 12.0 91 1026.2 1.6 W 2.2 0.0 0.0
22:38 13.3 11.9 91 1026.3 2.2 W 2.2 0.0 0.0
22:39 13.3 11.9 91 1026.3 3.1 W 3.1 0.0 0.0
22:40 13.3 11.9 91 1026.4 1.6 W 3.1 0.0 0.0
22:41 13.3 11.9 91 1026.5 1.6 W 3.1 0.0 0.0
22:42 13.3 11.9 91 1026.5 1.6 W 3.1 0.0 0.0
22:43 13.3 11.9 91 1026.6 1.6 NW 3.1 0.0 0.0
22:44 13.3 11.9 91 1026.6 1.6 NW 3.1 0.0 0.0
22:45 13.2 11.8 91 1026.4 1.6 N 3.1 0.0 0.0
22:46 13.2 11.8 91 1026.4 0.7 W 3.1 0.0 0.0
22:47 13.2 11.8 91 1026.5 0.7 W 3.1 0.0 0.0
22:48 13.2 11.8 91 1026.4 1.6 NW 3.1 0.0 0.0
22:49 13.2 11.8 91 1026.5 1.6 N 3.1 0.0 0.0
22:50 13.2 11.8 91 1026.4 2.2 NW 3.1 0.0 0.0
22:51 13.1 11.7 91 1026.4 2.2 NW 3.1 0.0 0.0
22:52 13.1 11.7 91 1026.6 2.2 NW 3.1 0.0 0.0
22:53 13.1 11.7 91 1026.5 1.6 W 3.1 0.0 0.0
22:54 13.1 11.7 91 1026.7 1.6 NW 3.1 0.0 0.0
22:56 13.0 11.6 91 1026.4 2.2 N 3.1 0.0 0.0
22:57 13.0 11.6 91 1026.5 1.6 W 3.1 0.0 0.0
22:58 13.0 11.6 91 1026.5 1.6 W 3.1 0.0 0.0
22:59 12.9 11.5 91 1026.4 2.2 NW 3.1 0.0 0.0
23:00 12.9 11.5 91 1026.4 2.2 NW 3.1 0.0 0.0
23:01 12.9 11.5 91 1026.4 2.2 NW 3.1 0.0 0.0
23:02 12.9 11.5 91 1026.5 2.2 NW 3.1 0.0 0.0
23:03 12.9 11.5 91 1026.5 2.2 NW 3.1 0.0 0.0
23:04 12.9 11.5 91 1026.5 2.2 NW 3.1 0.0 0.0
23:05 12.9 11.5 91 1026.7 2.2 NW 3.1 0.0 0.0
23:06 12.9 11.5 91 1026.6 2.2 NW 3.1 0.0 0.0
23:07 12.7 11.1 90 1026.5 0.7 N 3.1 0.0 0.0
23:08 12.7 11.1 90 1026.6 0.7 N 3.1 0.0 0.0
23:09 12.7 11.1 90 1026.5 1.6 N 3.1 0.0 0.0
23:10 12.7 11.1 90 1026.7 0.7 N 2.2 0.0 0.0
23:11 12.7 11.1 90 1026.4 0.7 N 2.2 0.0 0.0
23:12 12.6 11.0 90 1026.5 0.7 NE 2.2 0.0 0.0
23:13 12.6 11.0 90 1026.5 0.7 N 2.2 0.0 0.0
23:14 12.6 11.0 90 1026.6 0.7 N 2.2 0.0 0.0
23:15 12.6 11.0 90 1026.4 1.6 N 2.2 0.0 0.0
23:16 12.6 11.0 90 1026.4 0.7 NW 1.6 0.0 0.0
23:17 12.6 11.0 90 1026.5 0.7 N 1.6 0.0 0.0
23:18 12.5 10.9 90 1026.7 1.6 NW 1.6 0.0 0.0
23:20 12.5 10.9 90 1026.6 1.6 N 1.6 0.0 0.0
23:21 12.5 10.9 90 1026.6 1.6 N 1.6 0.0 0.0
23:22 12.5 10.9 90 1026.6 0.7 N 1.6 0.0 0.0
23:23 12.5 10.9 90 1026.5 0.0 NW 1.6 0.0 0.0
23:24 12.5 10.9 90 1026.4 0.0 NW 1.6 0.0 0.0
23:25 12.5 10.9 90 1026.4 1.6 W 1.6 0.0 0.0
23:26 12.5 10.9 90 1026.6 1.6 W 1.6 0.0 0.0
23:27 12.5 10.9 90 1026.5 1.6 W 1.6 0.0 0.0
23:28 12.5 10.9 90 1026.3 0.7 W 1.6 0.0 0.0
23:30 12.5 10.9 90 1026.5 1.6 W 1.6 0.0 0.0
23:31 12.5 11.1 91 1026.6 0.7 W 1.6 0.0 0.0
23:32 12.5 11.1 91 1026.7 0.7 W 1.6 0.0 0.0
23:33 12.5 11.1 91 1026.4 2.2 W 2.2 0.0 0.0
23:34 12.5 11.1 91 1026.5 2.2 W 2.2 0.0 0.0
23:35 12.5 11.1 91 1026.4 0.0 SW 2.2 0.0 0.0
23:36 12.5 11.1 91 1026.6 0.7 W 2.2 0.0 0.0
23:37 12.5 11.1 91 1026.6 0.7 W 2.2 0.0 0.0
23:38 12.5 11.1 91 1026.6 1.6 NW 2.2 0.0 0.0
23:39 12.5 11.1 91 1026.4 0.7 W 2.2 0.0 0.0
23:40 12.5 11.1 91 1026.5 0.7 W 2.2 0.0 0.0
23:41 12.5 11.1 91 1026.6 1.6 W 2.2 0.0 0.0
23:42 12.5 11.1 91 1026.6 2.2 NW 2.2 0.0 0.0
23:43 12.5 11.1 91 1026.6 2.2 NW 2.2 0.0 0.0
23:44 12.5 11.1 91 1026.5 1.6 NW 2.2 0.0 0.0
23:45 12.5 11.1 91 1026.4 1.6 NW 2.2 0.0 0.0
23:46 12.5 11.1 91 1026.6 1.6 N 2.2 0.0 0.0
23:47 12.5 11.1 91 1026.4 0.7 N 2.2 0.0 0.0
23:49 12.5 11.1 91 1026.5 0.7 N 2.2 0.0 0.0
23:50 12.5 11.1 91 1026.4 0.7 N 2.2 0.0 0.0
23:51 12.5 11.1 91 1026.6 1.6 N 2.2 0.0 0.0
23:52 12.5 11.1 91 1026.5 0.7 NW 2.2 0.0 0.0
23:53 12.5 11.1 91 1026.4 0.7 NW 1.6 0.0 0.0
23:54 12.5 11.1 91 1026.5 0.7 NW 1.6 0.0 0.0
23:55 12.5 11.1 91 1026.5 1.6 N 1.6 0.0 0.0
23:56 12.5 11.1 91 1026.5 1.6 N 1.6 0.0 0.0
23:57 12.4 11.5 94 1026.5 1.6 N 1.6 0.0 0.0
23:58 12.4 11.5 94 1026.8 1.6 N 1.6 0.0 0.0
23:59 12.4 11.5 94 1026.6 1.6 N 1.6 0.0 0.0

 

 

UK - WEATHER STATION TOPSITES - UK World Weather Websites

Copyright © Carnkie Weather 2009 - 2022.